ECMWFFLT2_700_spd_000.txt.gz
Wind_Speed
27 27 32 35 31 26 26 33 38 35 30 29 27 22 19 18 15 16 19 19 20 22 21 22 23 21 19 19 19 20 22 21 16 14 16 18 18 18 20 22 24 28 30 29 28 29 29 29 28 27 26 26 28 30 29 28 28 28 26 25 23 22 22
30 27 27 33 35 28 25 31 36 34 27 27 29 22 17 15 12 15 20 19 19 20 19 21 24 25 25 23 21 20 20 22 20 15 19 22 21 18 18 20 22 24 26 26 27 28 29 30 29 28 25 24 25 28 29 29 29 29 27 25 24 24 23
27 27 26 30 35 35 30 26 28 32 27 25 28 21 14 15 11 11 19 21 21 22 19 16 18 20 22 22 21 19 18 20 19 15 20 22 21 19 17 18 20 22 24 25 27 29 30 31 31 29 26 24 24 25 26 27 28 29 27 26 26 26 25
26 29 31 32 34 37 37 28 25 32 32 28 30 27 19 16 12 10 16 19 20 23 22 19 17 17 18 18 19 18 16 17 17 16 18 18 18 20 19 19 20 23 24 25 28 29 30 32 32 30 27 24 24 24 24 25 26 27 27 28 28 27 26
26 31 35 38 35 35 38 37 31 31 33 29 29 32 31 25 14 10 12 13 18 22 22 24 24 22 21 20 20 20 18 17 17 18 19 18 17 18 18 17 19 22 23 24 26 28 31 33 34 32 29 26 25 24 24 25 26 27 28 29 28 27 27
27 31 32 36 37 34 34 37 36 34 31 28 24 25 33 35 26 19 15 12 17 19 16 19 23 23 23 22 21 22 22 20 18 20 22 19 18 19 18 17 17 19 22 24 25 27 31 34 36 34 31 28 26 25 25 25 27 28 29 30 28 25 25
22 25 25 28 33 36 35 33 35 37 34 32 28 22 27 35 32 30 27 19 20 21 13 12 17 20 21 20 19 20 21 20 19 19 21 19 18 19 19 19 19 21 24 26 27 28 30 32 35 35 33 31 28 27 27 27 28 28 29 30 29 26 24
18 20 23 25 27 32 37 36 35 37 38 38 37 30 28 33 32 31 26 20 22 23 13 10 13 14 15 16 18 20 22 23 22 22 21 20 20 21 23 23 22 25 29 30 30 29 28 30 32 33 34 33 30 28 29 30 30 29 28 29 28 27 25
14 17 19 23 26 28 34 37 36 37 38 38 39 36 32 33 36 36 26 20 26 27 18 15 16 13 10 12 15 19 24 26 26 26 25 22 21 22 23 25 25 27 31 32 30 29 28 29 30 30 32 33 31 30 31 32 32 29 28 27 26 25 24
13 14 17 22 27 27 29 33 35 37 39 39 38 37 33 33 36 39 36 30 31 33 27 25 25 23 20 17 14 15 19 22 22 24 25 22 20 20 20 23 27 29 31 29 29 29 28 27 27 27 28 29 31 32 32 33 32 29 27 25 25 26 25
22 19 20 21 23 26 28 31 34 36 38 39 39 37 37 37 34 36 41 38 33 34 32 28 27 27 26 25 21 17 17 19 19 22 23 23 21 20 20 22 25 28 29 28 29 29 28 27 25 25 26 27 29 31 32 33 32 29 26 25 27 28 24
30 26 23 22 22 25 26 28 32 35 36 38 42 43 42 39 32 31 38 38 37 39 36 30 27 23 22 25 28 26 24 22 22 24 26 27 25 23 22 22 25 28 28 28 29 27 27 27 25 24 25 27 28 29 30 32 31 28 25 25 26 25 23
31 30 28 27 26 25 25 26 29 32 35 36 40 44 43 40 36 33 32 33 37 42 41 37 33 26 22 23 25 29 29 26 27 29 29 29 29 26 23 23 27 30 28 27 27 25 25 25 24 24 25 26 27 27 28 28 28 27 25 25 25 23 24
28 30 30 31 31 31 29 29 29 30 34 37 38 40 40 41 43 41 35 32 34 37 39 42 41 36 32 29 26 28 30 30 31 31 29 29 29 28 25 25 29 30 26 25 25 25 26 25 24 25 25 26 26 25 25 25 25 26 26 27 26 24 26
25 29 33 33 33 34 32 33 33 32 33 35 38 39 38 39 42 42 40 39 37 34 32 36 39 38 37 36 33 30 30 32 32 32 31 31 30 28 26 27 30 31 29 26 24 25 27 26 26 27 27 27 27 25 25 25 25 26 28 28 27 27 29
21 25 30 33 34 35 36 36 35 34 35 35 36 37 36 37 39 38 41 44 43 36 31 32 35 36 36 37 36 33 32 34 36 35 34 31 30 27 25 27 31 34 33 28 24 25 27 28 28 29 29 29 29 28 27 27 27 28 28 28 29 30 31
17 16 20 27 30 30 33 36 36 35 36 36 36 36 35 34 35 35 38 41 39 34 32 34 36 36 36 38 39 37 35 35 38 38 34 31 31 30 27 28 31 35 38 32 27 28 31 31 31 31 31 32 31 30 29 28 28 28 28 28 29 30 29
14 12 14 18 19 20 25 31 33 34 36 37 36 38 37 34 33 32 31 30 29 29 30 32 32 32 34 38 41 40 38 37 38 39 36 33 35 35 32 29 29 35 40 36 31 32 34 33 33 34 33 33 32 31 30 29 29 29 28 28 29 29 29
14 13 13 13 14 19 24 25 27 31 35 36 37 37 38 36 35 34 31 27 24 23 24 25 26 28 31 34 37 39 39 39 40 40 37 35 36 36 34 31 28 32 38 36 34 36 37 34 34 35 34 34 33 32 32 32 32 31 30 30 30 30 31
14 14 14 13 13 19 24 24 25 27 28 31 34 36 37 37 36 35 34 32 28 24 23 24 25 26 26 27 31 36 39 40 42 41 39 37 37 36 35 31 28 30 34 36 38 40 39 37 36 35 35 35 35 34 34 35 35 35 33 32 32 32 32
13 13 15 14 15 19 24 24 22 22 24 27 30 33 34 34 35 36 34 33 31 28 28 31 29 26 25 26 29 35 38 40 41 42 41 41 38 37 36 32 29 32 35 38 41 41 40 39 37 36 36 36 35 35 35 36 36 36 36 35 34 33 32
12 10 10 10 12 15 18 18 18 20 24 28 29 31 32 30 31 34 35 34 32 31 33 36 31 27 28 29 29 35 40 40 41 43 44 43 39 37 38 35 31 34 38 39 39 39 40 40 39 38 37 35 35 36 36 37 37 37 36 35 34 32 30
18 14 9 8 11 12 10 11 16 19 22 26 27 29 33 33 31 32 33 34 35 35 36 36 32 30 31 29 29 35 38 39 40 42 43 44 40 37 39 38 35 36 38 35 33 36 41 41 40 40 38 37 37 39 39 39 39 38 36 35 32 29 27
22 19 14 11 13 15 13 14 16 16 17 20 22 21 25 32 35 35 34 33 33 33 32 32 31 32 31 29 30 34 35 34 35 35 38 42 40 38 39 40 38 38 37 32 30 37 42 42 42 42 40 39 40 41 41 41 40 38 36 33 29 26 24
23 22 19 15 13 16 18 19 19 19 17 17 19 20 20 24 28 32 33 32 31 30 29 31 34 34 32 31 32 34 33 32 31 31 34 36 36 36 38 39 38 38 36 31 32 39 43 43 42 42 42 41 41 40 40 40 39 38 36 32 27 22 19
22 21 20 15 12 15 19 20 21 21 17 14 17 21 22 21 21 25 31 33 32 31 31 33 35 33 31 31 33 34 33 32 32 32 33 34 33 34 35 35 34 35 34 33 35 40 44 44 43 43 42 40 38 37 36 36 37 37 35 30 24 18 15
20 18 15 10 9 12 17 18 18 15 13 16 17 19 21 20 19 23 31 35 35 35 34 34 32 31 30 31 33 33 32 31 31 30 30 30 29 30 30 29 29 30 33 36 39 42 43 43 42 42 41 37 34 33 32 32 32 32 31 27 22 19 20
21 18 17 15 16 17 18 22 23 19 18 21 19 16 17 18 19 25 32 35 35 33 33 33 32 30 30 29 28 27 26 25 26 25 24 24 25 26 28 29 31 33 35 39 41 42 41 40 39 39 38 37 36 33 30 28 26 25 25 26 27 28 29
29 25 23 23 23 21 23 27 29 25 22 24 20 15 15 19 22 26 30 32 32 32 33 34 33 31 29 27 27 28 27 27 28 28 30 30 31 32 33 34 35 36 36 37 38 38 37 37 37 37 36 35 36 33 29 24 22 22 24 26 28 30 31
34 28 26 24 19 19 23 21 17 17 19 20 19 16 18 21 24 27 29 31 32 33 34 34 32 31 31 33 33 33 32 33 33 33 33 34 34 35 36 37 37 37 36 36 36 36 35 34 33 33 33 31 30 30 29 26 24 24 25 24 25 26 29
27 23 25 24 17 14 13 13 16 19 19 18 19 22 26 28 30 32 33 33 34 35 35 35 35 36 38 39 39 38 37 37 37 36 35 34 35 35 36 36 35 35 34 34 33 32 31 30 29 29 30 29 27 28 29 27 25 24 23 23 25 27 30
21 20 23 22 16 15 22 26 25 26 29 30 29 29 29 29 31 33 34 34 33 34 35 36 37 39 39 40 40 38 37 36 36 36 35 34 33 33 32 31 29 29 29 27 26 25 24 23 23 23 23 24 24 24 24 23 22 22 24 26 28 29 30
21 23 23 21 19 23 27 25 24 28 29 29 30 30 27 25 25 26 27 27 27 29 31 31 33 36 38 38 37 35 32 31 32 33 32 31 29 28 27 25 23 22 22 21 21 21 20 19 19 19 19 20 21 21 21 21 23 26 28 29 29 29 27
22 25 24 23 23 25 24 20 22 27 28 27 28 28 27 26 24 21 20 20 20 21 22 22 23 26 29 31 31 29 26 25 25 26 26 26 25 23 22 22 21 20 21 21 21 20 20 19 19 19 20 21 22 23 25 27 29 30 31 30 27 25 22
20 24 24 24 27 29 25 17 16 20 24 26 27 27 27 27 24 21 20 18 16 18 18 17 16 17 18 20 21 20 18 17 18 19 20 21 22 20 19 20 20 20 21 21 21 20 20 20 20 21 22 22 24 26 28 30 31 31 29 27 25 23 21
21 25 28 29 32 31 24 14 10 13 19 22 24 24 22 20 18 18 17 15 13 14 15 14 13 13 14 14 15 15 15 16 16 17 18 19 19 18 17 18 19 20 22 23 23 22 21 21 22 22 22 23 25 27 29 29 29 28 27 25 23 22 21
22 29 34 35 35 30 22 16 16 14 14 14 13 12 11 10 9 9 9 9 9 10 11 11 11 12 12 12 13 13 14 14 15 16 16 16 17 17 17 17 17 18 20 22 23 22 22 22 22 22 23 24 26 27 27 26 25 24 23 22 22 21 21

ECMWFFLT2_700_spd_003.txt.gz
Wind_Speed
30 31 34 36 35 31 30 35 40 40 36 34 29 23 25 26 17 17 25 27 28 28 26 24 22 21 23 25 25 26 26 25 26 25 22 22 25 27 27 23 24 28 26 22 21 21 22 22 23 24 25 24 23 23 25 28 28 26 26 26 26 23 21
30 27 27 33 38 33 29 33 39 40 36 35 32 22 19 18 13 16 27 30 27 25 23 24 26 27 25 24 25 25 26 27 26 25 24 23 24 26 26 25 25 28 27 23 22 23 22 21 21 23 25 24 22 21 22 27 29 27 26 26 26 25 24
27 27 26 30 37 40 36 31 31 37 36 32 33 25 16 15 11 12 23 28 27 27 23 20 23 28 29 28 27 24 24 26 26 25 24 25 25 25 25 26 27 28 26 23 23 24 22 22 22 23 26 25 23 22 22 26 29 29 28 27 27 28 27
24 27 30 31 35 41 43 36 30 36 37 32 34 31 23 18 13 11 17 20 23 27 26 22 23 26 28 29 29 26 24 26 26 25 23 22 24 25 25 26 26 24 23 22 22 23 23 24 24 24 26 27 25 24 24 26 29 31 30 29 29 29 29
25 29 35 37 36 37 43 45 38 35 35 35 36 36 35 28 16 10 12 13 21 27 23 22 23 23 23 26 29 28 26 26 26 25 22 21 23 25 25 29 26 19 19 21 22 24 25 26 25 24 26 28 27 26 25 26 29 31 32 31 31 30 30
30 32 34 34 34 33 36 43 44 38 33 34 30 25 34 39 28 18 14 12 19 26 24 24 25 22 19 22 26 28 28 27 25 23 22 24 26 24 21 26 25 16 14 18 22 26 28 28 26 25 26 28 29 28 26 26 28 31 32 32 33 32 31
26 27 27 29 31 32 33 35 42 43 37 35 29 20 29 39 34 31 27 19 18 22 21 22 24 23 22 21 22 25 26 24 22 20 21 24 27 24 20 22 23 18 13 15 19 23 28 31 28 26 26 29 30 29 27 27 28 30 32 33 32 33 33
22 23 24 28 29 31 35 35 38 44 43 40 34 28 32 34 32 34 28 19 22 26 18 15 19 22 23 22 22 24 24 24 23 22 23 22 23 25 23 20 20 20 15 15 19 22 26 31 31 27 26 29 30 29 29 29 28 29 33 33 30 30 31
17 20 21 26 32 34 36 37 37 40 44 45 39 32 31 31 34 37 26 16 26 31 21 15 15 18 21 23 25 27 26 25 24 23 21 18 16 21 23 20 19 21 18 17 21 23 26 30 32 29 26 28 31 31 30 30 29 29 33 33 29 28 28
13 16 17 23 31 33 33 36 37 37 40 46 45 38 33 30 32 37 32 25 29 30 26 23 20 17 17 20 24 26 26 25 25 24 22 20 18 20 22 20 20 22 22 22 23 25 27 31 32 30 27 27 30 31 31 31 30 31 32 31 29 29 27
20 20 20 21 25 28 29 32 36 37 38 41 43 40 39 37 32 32 37 36 32 29 28 27 27 23 19 19 21 22 21 21 23 25 25 23 23 23 23 22 23 25 25 24 24 26 29 32 32 30 28 26 27 31 33 32 32 33 32 28 27 28 27
27 23 22 21 22 26 29 30 33 36 37 39 40 39 41 43 36 32 37 39 37 35 32 27 28 28 24 23 24 23 21 18 18 20 22 24 28 28 25 25 26 27 25 23 24 26 27 31 32 31 28 25 26 30 31 32 35 34 30 27 26 26 27
31 28 25 23 24 26 28 29 30 32 34 38 41 41 41 42 40 37 37 39 40 42 41 34 30 29 28 28 27 27 27 25 21 20 19 21 27 29 27 25 23 23 24 25 26 25 24 28 31 30 28 26 27 30 30 31 36 36 31 27 26 26 27
31 32 30 28 28 28 28 30 30 30 32 36 39 41 39 40 42 41 39 40 42 43 43 41 36 32 30 29 28 29 29 28 27 26 23 21 22 23 26 28 24 21 21 24 28 28 25 27 30 29 29 29 29 31 31 31 35 38 35 31 30 29 28
27 30 32 32 32 32 31 31 31 31 32 34 37 40 40 40 42 41 39 40 41 39 40 42 41 39 37 32 28 28 27 25 26 26 26 25 23 21 26 32 31 25 20 23 28 29 28 29 29 30 30 30 29 29 31 30 32 37 36 32 32 32 32
26 26 28 30 32 33 33 34 34 34 35 34 35 37 38 40 42 41 40 42 41 38 37 39 40 41 45 43 37 32 28 26 25 23 24 27 27 24 26 33 34 28 22 24 27 27 30 31 30 32 31 30 29 29 31 29 29 34 36 33 33 35 35
27 26 25 27 28 26 30 37 38 36 36 35 35 36 36 37 38 39 40 42 41 36 34 37 39 40 43 46 45 42 38 35 32 28 27 28 27 26 30 36 36 30 25 27 28 26 33 33 32 33 31 29 31 31 32 30 27 32 36 35 35 37 36
25 25 25 26 22 20 29 37 37 36 37 37 37 38 37 36 37 38 38 39 38 36 35 38 41 41 40 41 42 43 43 43 42 38 35 33 30 32 35 36 35 32 33 35 31 26 34 36 34 34 32 31 32 32 31 31 30 32 35 36 36 36 35
21 21 22 20 18 22 28 29 29 33 36 36 38 39 39 38 38 38 37 35 35 35 36 39 41 42 40 39 38 39 39 40 42 41 39 36 36 39 38 34 33 37 42 41 33 27 36 41 38 37 37 33 32 33 33 34 34 34 33 34 35 35 35
20 20 21 17 16 21 22 18 20 26 30 34 36 37 37 39 39 40 40 36 34 33 32 33 35 39 43 43 41 41 41 40 41 40 39 38 40 44 44 40 39 41 43 41 34 27 35 45 42 40 40 36 35 37 38 37 37 35 33 35 36 36 35
22 22 23 21 19 21 20 17 17 18 19 22 22 22 28 33 33 36 40 37 35 35 33 30 28 30 36 41 40 38 39 43 45 43 41 40 42 48 50 45 43 43 42 41 35 28 32 45 46 42 41 40 39 40 39 38 37 36 36 37 38 37 36
23 22 20 18 16 19 20 19 17 16 14 14 15 18 25 29 25 27 35 37 36 36 35 34 32 28 28 32 34 33 33 37 43 45 43 41 42 46 47 43 43 44 42 39 35 28 30 42 47 44 44 43 42 41 40 38 38 38 38 39 39 38 38
24 23 20 17 14 15 16 14 14 15 16 18 20 24 29 30 25 23 28 33 36 36 35 35 36 33 30 32 33 32 29 30 35 41 43 42 41 43 42 40 42 43 41 39 35 29 30 41 48 47 45 43 42 42 40 39 39 39 40 40 40 39 38
28 25 23 21 18 14 12 10 10 14 17 18 18 18 20 24 24 25 28 30 32 34 35 35 37 38 37 34 30 28 29 32 36 38 40 41 41 40 40 41 43 43 40 38 33 28 30 40 46 46 44 43 44 43 42 41 41 41 41 41 41 40 39
31 27 25 24 21 15 13 12 9 10 13 15 16 15 14 17 21 26 33 36 34 32 32 33 36 36 35 33 31 29 30 33 33 34 36 38 39 39 40 41 42 41 39 37 31 27 28 35 40 40 41 43 45 43 42 42 42 42 43 42 41 39 36
31 30 28 25 22 19 17 16 14 14 14 15 18 19 18 18 21 25 31 36 36 33 31 32 33 30 28 30 33 35 36 35 31 29 31 33 34 36 38 40 40 39 37 33 28 26 27 30 33 34 37 43 45 44 44 44 44 44 43 40 37 33 30
28 29 27 20 17 21 20 15 15 18 18 16 18 22 21 21 23 25 27 31 33 33 32 32 32 30 29 30 32 36 41 41 35 30 29 28 29 31 33 35 35 35 33 31 28 27 29 29 30 32 38 43 45 44 44 44 43 42 38 34 29 24 21
27 27 25 18 14 16 18 16 16 20 24 25 23 24 25 25 24 25 24 22 24 29 29 29 32 33 32 34 36 36 39 39 36 33 31 29 27 26 25 27 29 31 32 30 27 27 28 30 31 34 38 41 41 40 40 39 37 36 33 30 27 24 24
25 23 20 18 15 13 16 20 20 21 26 30 26 23 24 23 20 19 16 11 11 19 24 29 35 33 29 30 32 30 29 29 28 25 22 19 18 19 21 25 27 29 30 30 29 29 31 33 36 38 39 38 37 37 36 33 30 28 26 26 26 26 26
24 20 15 15 16 15 17 20 23 24 26 30 28 22 20 20 18 17 15 11 12 16 20 20 21 20 19 21 21 18 17 17 18 19 19 19 21 24 25 26 26 26 27 29 30 32 34 36 39 39 38 36 35 35 33 29 27 24 20 18 19 21 22
21 17 13 15 17 18 18 18 23 26 22 23 24 21 16 16 17 20 21 19 18 19 22 24 26 25 25 27 28 28 29 28 26 26 26 27 29 31 30 30 30 31 33 34 35 37 38 38 37 36 34 32 32 32 31 29 27 23 20 20 22 24 25
16 16 16 20 21 21 22 22 24 22 15 9 7 7 9 12 13 13 18 20 20 22 25 29 30 28 26 26 27 27 28 28 29 31 31 31 33 35 37 39 41 40 39 39 38 38 37 35 32 29 28 26 26 26 25 23 23 24 26 26 26 26 27
17 18 19 23 23 20 20 20 21 21 20 15 11 12 8 9 15 18 19 21 22 25 27 28 29 29 27 25 25 25 26 28 30 31 32 32 34 37 41 41 41 39 37 35 34 32 30 29 27 23 20 20 20 19 17 19 21 24 26 27 26 26 26
18 20 20 21 22 21 19 19 19 21 24 25 23 22 21 19 19 21 22 23 24 26 28 27 27 29 28 27 27 26 27 29 31 31 32 33 34 37 38 37 35 35 33 32 30 27 24 24 24 20 17 16 18 19 18 19 20 21 23 25 26 24 22
12 17 19 20 21 21 21 22 23 25 27 30 31 33 31 28 26 25 24 23 23 25 27 28 29 30 28 26 25 24 24 25 26 25 26 28 29 30 30 30 29 29 28 27 27 25 22 21 21 20 17 15 16 18 18 17 17 16 17 18 19 17 16
10 14 19 18 17 19 22 26 28 30 32 33 33 32 28 25 23 22 20 20 21 22 23 24 26 26 24 21 20 20 18 18 19 19 19 19 19 20 21 22 22 22 22 22 22 22 21 19 18 18 17 16 16 17 18 17 16 15 14 13 12 12 12
11 15 18 18 17 19 23 29 32 32 31 31 30 28 24 21 18 16 16 17 19 19 19 19 20 22 21 19 17 17 16 14 14 17 17 16 14 14 14 14 14 16 17 17 18 19 20 19 19 19 18 18 17 17 18 18 17 14 12 11 11 12 12

ECMWFFLT2_700_spd_006.txt.gz
Wind_Speed
30 30 31 32 31 28 28 33 39 40 37 34 28 22 25 24 14 14 22 24 25 26 23 22 22 21 25 28 28 28 30 34 32 27 32 41 41 35 32 31 26 21 23 24 22 23 23 22 22 24 24 23 23 22 18 17 20 22 23 24 24 23 23
33 30 28 32 36 32 29 33 37 37 34 35 31 19 17 18 11 12 23 26 23 21 20 24 27 24 24 26 28 29 29 34 32 24 29 40 42 38 32 28 22 19 21 25 24 24 25 23 23 23 25 24 23 23 20 17 18 20 21 24 25 24 24
31 30 28 30 36 40 39 32 29 31 31 31 30 21 14 14 9 10 20 25 24 25 23 22 25 27 27 26 27 28 28 32 32 28 31 35 36 34 31 26 19 18 21 24 25 26 26 24 23 24 25 25 24 25 23 20 19 20 21 24 25 25 25
28 32 34 35 36 40 42 36 29 32 32 29 31 29 23 17 9 9 17 18 20 27 28 25 25 28 30 29 27 26 27 29 30 30 33 36 34 31 29 25 19 20 24 26 26 28 28 26 24 24 24 26 26 25 25 23 21 21 22 24 26 26 26
29 35 38 37 34 33 37 40 37 34 33 30 29 30 32 25 12 8 11 12 18 26 26 26 27 23 25 29 28 26 27 29 30 28 30 33 35 32 27 24 22 23 27 29 26 28 31 31 29 27 26 27 27 26 27 25 23 23 23 24 27 27 27
32 35 34 33 32 30 33 39 41 37 32 30 23 19 30 34 23 16 12 10 18 26 23 25 27 22 20 25 26 26 28 30 30 29 28 31 35 32 28 28 24 20 24 30 27 27 32 34 32 30 28 29 28 27 28 27 25 24 24 24 26 27 28
28 29 30 32 31 31 31 34 40 40 35 33 26 17 25 34 32 30 24 16 19 25 23 23 25 23 22 24 23 24 28 31 30 29 31 33 35 35 34 31 24 18 21 26 26 27 31 34 35 33 29 29 30 28 29 28 26 25 25 25 26 27 29
26 26 29 32 31 32 34 34 37 41 41 41 35 25 26 30 31 32 24 15 21 27 24 23 23 20 20 23 22 21 23 28 29 30 33 33 35 40 38 29 22 21 21 24 26 27 27 30 35 35 31 29 30 29 30 30 28 26 25 27 28 28 29
20 22 24 31 33 33 33 34 34 37 41 43 39 33 28 26 30 32 20 13 25 32 27 24 23 20 21 23 24 22 21 24 27 30 35 33 30 35 35 25 21 22 21 21 23 21 20 24 32 37 33 30 30 30 30 31 29 27 27 28 29 29 28
14 16 18 25 32 33 32 33 34 35 38 40 41 40 32 22 26 33 28 22 25 30 29 27 23 21 21 21 24 23 20 23 26 26 30 29 26 30 30 23 22 23 19 18 18 16 15 17 26 35 35 31 30 31 31 31 30 28 28 30 31 30 28
21 22 22 23 27 31 32 33 35 36 36 37 39 40 38 31 25 28 34 34 28 25 29 31 28 24 19 18 23 24 19 21 24 21 17 15 16 21 21 20 23 23 20 18 17 16 15 15 21 30 34 32 31 32 33 32 30 29 29 31 31 29 26
31 26 25 25 25 29 32 33 35 35 34 36 38 38 40 39 29 22 30 36 34 30 27 28 28 27 22 20 22 25 23 22 25 26 20 14 15 18 20 21 23 23 22 20 20 19 18 17 21 28 32 33 32 32 34 33 31 29 30 32 32 28 25
38 32 28 27 26 27 30 31 33 35 35 36 39 39 40 40 34 30 30 31 34 36 32 27 26 25 24 24 23 26 26 22 24 30 28 23 21 18 18 21 22 23 23 22 22 21 19 19 22 28 32 33 33 34 35 34 33 31 30 31 32 28 24
37 37 34 32 29 27 30 30 30 32 34 35 37 38 38 37 38 39 36 31 32 36 36 34 32 27 26 27 27 29 28 23 22 27 26 24 24 22 19 20 22 25 25 20 15 14 16 19 23 28 31 31 32 34 36 35 34 34 31 31 31 27 24
30 35 37 36 34 31 30 30 29 29 31 34 36 37 36 35 36 39 41 38 33 31 33 35 35 32 30 30 29 30 31 29 27 27 26 22 22 24 26 26 25 27 28 23 15 12 14 16 18 21 26 29 31 35 37 36 35 35 34 32 30 27 24
28 31 33 35 37 34 31 32 33 33 33 32 33 36 35 35 35 34 37 40 36 32 33 36 37 36 35 35 33 30 30 31 31 32 33 29 24 24 27 27 23 24 28 29 24 18 17 16 14 14 19 25 31 36 37 36 35 36 37 34 30 27 25
27 27 27 30 33 29 30 37 37 34 34 33 31 31 31 33 35 33 32 34 34 31 31 34 37 38 38 40 40 37 33 32 32 32 35 36 33 30 29 27 22 19 23 29 30 26 23 22 19 15 17 21 29 34 36 36 35 38 39 36 31 29 29
26 24 25 25 22 21 29 37 35 32 32 33 32 31 29 30 36 37 34 33 33 31 30 31 33 35 36 39 40 40 40 39 37 34 33 33 33 31 29 28 25 23 22 24 29 30 28 25 22 19 18 20 25 32 37 38 37 37 39 37 33 32 32
26 25 26 20 16 22 28 28 26 29 33 33 32 32 31 30 32 35 36 34 33 32 34 35 34 34 35 36 34 34 37 42 43 40 36 32 29 28 28 27 28 28 27 28 31 33 30 28 26 22 20 21 24 32 38 41 38 36 37 39 36 34 34
24 25 25 18 16 23 25 21 21 23 27 30 30 31 32 32 30 28 30 30 25 22 27 33 36 37 37 36 35 33 33 37 41 43 42 39 36 33 31 30 30 30 31 33 35 33 30 29 29 26 21 20 25 32 37 40 41 37 37 40 38 36 37
26 25 25 21 19 20 22 25 24 22 22 24 28 30 31 32 29 25 26 27 19 13 17 25 31 35 37 39 42 43 41 38 37 37 39 43 44 40 36 35 36 36 38 40 40 38 35 33 32 28 22 22 25 33 39 40 41 40 39 41 40 39 41
29 26 20 17 16 17 22 26 22 20 18 16 20 26 27 28 27 21 21 25 23 19 19 22 24 28 32 38 41 41 42 43 42 40 38 40 42 41 37 35 38 42 44 43 43 42 39 36 35 31 28 27 27 33 41 41 39 40 41 42 42 42 41
26 27 21 16 14 16 22 24 20 21 19 14 15 19 21 24 26 23 22 25 28 28 24 23 23 20 24 33 36 33 33 36 40 43 41 40 42 43 40 33 32 38 43 43 44 44 41 40 39 36 33 31 29 32 39 43 41 41 42 43 43 42 41
19 21 20 19 17 16 18 22 20 18 18 17 15 13 13 17 23 29 31 30 31 33 29 25 23 20 19 23 27 32 35 32 31 35 40 40 38 41 44 41 34 36 41 43 44 45 43 41 40 38 35 33 30 30 37 44 44 43 44 44 42 41 42
20 18 18 19 18 15 14 18 18 14 14 18 19 16 15 14 15 21 26 26 30 35 34 29 28 29 26 21 19 26 35 35 30 29 35 38 33 31 36 40 38 39 42 44 47 47 44 41 38 35 34 33 31 31 37 44 47 47 47 45 42 42 43
24 23 21 19 18 18 16 15 16 15 14 16 19 19 19 18 16 18 21 23 26 31 34 35 35 34 31 28 24 23 27 35 39 38 36 37 34 30 33 35 35 39 43 45 47 47 43 41 39 35 33 33 31 32 37 43 47 48 48 47 45 45 44
23 24 22 17 15 20 21 18 16 16 16 16 17 16 18 22 24 24 25 28 28 28 30 36 40 39 35 32 32 26 21 25 36 43 44 43 38 32 33 36 34 35 40 45 48 47 43 41 39 35 33 32 31 31 36 43 47 48 48 48 46 45 42
24 24 21 17 17 19 21 21 19 18 19 21 21 19 21 25 28 28 29 30 30 30 30 31 36 41 41 37 34 31 26 23 26 33 39 44 44 37 35 38 37 34 39 45 47 45 42 39 37 35 33 31 30 30 35 41 43 43 44 45 44 43 42
28 26 22 20 19 15 15 19 18 19 22 24 24 23 25 27 29 29 29 29 29 29 29 28 30 35 40 41 38 34 33 30 30 32 34 39 45 43 40 39 38 36 39 42 41 39 36 34 35 35 33 31 31 32 36 40 39 39 41 43 42 42 40
26 27 23 19 16 13 15 15 13 15 22 26 23 21 23 26 27 27 28 29 29 28 27 27 28 30 35 41 40 35 34 34 35 37 38 37 40 43 42 40 36 33 32 31 30 32 33 34 35 35 32 32 32 33 36 38 37 38 40 39 38 36 34
18 24 22 19 18 18 18 14 10 11 20 25 24 21 22 25 26 26 28 29 29 29 29 28 29 30 33 40 39 32 31 36 38 38 38 37 40 43 42 39 37 35 32 30 30 34 35 35 36 36 35 35 33 33 35 35 34 34 34 33 34 33 31
15 21 23 24 25 23 18 14 12 12 14 16 19 21 23 27 28 29 30 31 29 29 28 28 30 30 31 38 41 36 30 30 35 40 41 43 48 47 40 36 36 33 30 29 32 36 37 37 37 36 34 33 31 31 34 33 32 32 32 32 32 30 28
13 19 25 25 23 21 17 15 16 16 12 11 16 20 22 25 26 25 26 27 28 27 25 26 28 28 27 29 33 34 29 21 20 28 32 31 33 35 34 34 34 31 30 31 33 34 34 34 33 30 28 28 28 31 34 34 33 32 30 28 27 25 23
15 20 22 21 20 21 20 17 17 18 17 16 19 21 21 21 20 20 21 22 23 24 24 24 25 24 24 24 22 22 22 20 21 21 23 26 29 30 31 33 33 30 29 31 30 29 29 29 28 28 28 30 31 32 32 31 30 28 26 24 23 20 19
18 18 18 18 20 20 20 19 19 19 19 18 18 18 19 20 20 21 22 21 20 21 21 23 25 25 23 22 20 18 20 22 23 23 23 23 23 22 21 23 24 21 20 22 23 23 25 27 27 28 29 28 28 28 26 25 24 22 20 20 19 17 15
19 21 19 19 19 18 18 20 21 19 18 18 18 17 17 17 17 16 17 16 17 16 15 17 22 25 25 24 22 19 18 18 19 21 22 21 20 19 18 20 22 23 24 25 23 21 23 23 22 23 22 21 21 22 21 21 20 18 17 17 16 15 14
18 24 22 20 19 17 17 20 21 22 21 20 18 17 16 15 14 14 16 18 18 17 17 17 18 19 21 22 22 20 19 18 18 18 20 22 23 23 22 23 24 24 24 23 20 18 18 17 17 17 17 16 16 17 18 18 17 16 16 16 16 14 11

ECMWFFLT2_700_spd_009.txt.gz
Wind_Speed
33 31 30 35 35 29 28 38 46 44 40 34 21 13 18 18 9 12 22 23 22 24 21 20 21 23 30 32 28 29 31 28 30 34 37 36 35 37 39 39 37 33 31 30 26 23 23 25 25 24 22 21 20 18 17 16 16 18 21 23 24 24 22
31 32 31 34 39 35 27 32 41 38 31 31 28 16 12 11 6 10 22 24 22 20 18 23 26 25 29 35 31 29 32 32 33 34 34 33 32 34 38 39 33 28 29 27 24 22 22 25 25 25 24 22 20 20 18 17 17 16 18 21 22 23 22
30 30 32 33 36 39 35 28 29 31 28 28 29 18 9 9 5 5 15 22 24 25 22 24 29 28 28 32 32 30 32 34 36 36 35 35 35 35 37 36 30 29 29 25 23 23 23 26 26 25 25 23 22 22 20 19 18 16 17 19 21 21 22
30 33 38 38 35 37 38 33 30 34 32 29 31 26 17 11 5 5 11 14 18 27 30 24 24 28 30 29 30 31 30 32 36 37 37 36 36 35 34 30 28 31 30 26 25 25 24 25 26 25 25 25 25 24 22 21 20 19 19 20 21 21 23
31 38 43 42 37 36 40 41 41 38 34 30 29 31 33 24 8 3 6 8 16 28 31 26 22 24 29 30 32 34 33 32 34 37 39 38 35 35 33 28 26 29 29 27 26 25 24 24 25 27 26 26 27 26 25 24 22 22 21 20 21 22 23
32 38 41 42 41 40 41 45 48 44 35 28 19 19 34 37 21 11 6 4 16 26 26 28 29 25 26 29 31 36 35 31 32 36 39 39 36 35 34 30 26 26 28 28 26 25 26 26 27 29 28 27 28 28 28 27 25 25 23 22 22 22 24
32 29 32 38 41 41 41 42 48 48 40 33 22 10 17 30 28 25 18 10 19 30 27 26 29 27 28 28 27 32 34 30 32 36 37 38 38 36 35 34 29 28 29 28 26 26 27 29 29 29 28 28 28 30 30 29 28 26 25 23 23 24 25
36 31 29 35 40 41 42 43 44 46 45 42 33 21 16 21 24 24 17 11 22 34 33 29 27 24 25 27 25 28 31 29 30 32 33 35 38 36 34 33 31 30 32 30 26 26 27 29 29 28 28 28 29 31 32 30 29 27 25 25 25 26 26
24 29 25 28 42 46 42 42 41 42 45 43 37 34 27 22 27 28 14 9 21 28 30 35 33 26 22 21 21 25 29 29 27 30 33 34 35 34 33 31 30 31 35 32 25 24 26 28 29 28 29 29 29 31 32 31 30 28 27 27 27 27 27
11 18 19 21 38 47 42 39 38 39 40 39 37 37 30 22 30 36 25 19 25 28 31 38 37 31 24 18 16 23 27 28 26 26 32 37 37 35 33 32 31 32 36 33 23 21 24 25 26 27 28 28 27 28 30 32 31 29 28 29 29 28 28
27 27 30 26 28 39 43 41 38 37 36 38 39 37 34 29 25 30 36 36 31 28 32 37 36 34 31 22 18 22 24 26 26 24 28 35 38 35 32 30 29 30 33 30 22 19 21 20 20 22 23 23 22 23 26 29 31 30 29 30 30 30 29
43 36 35 32 27 30 37 41 41 39 36 36 40 41 43 39 23 20 33 38 32 31 32 32 30 29 32 29 25 23 20 19 24 23 24 31 38 34 29 28 28 29 30 26 20 19 20 19 20 20 20 21 19 19 20 24 29 31 30 31 31 31 30
46 42 35 33 35 33 32 36 39 40 39 38 39 41 44 42 32 31 36 32 28 29 29 30 29 25 26 31 32 30 22 14 13 15 17 26 35 32 27 27 28 29 28 25 21 21 21 21 22 22 22 23 21 20 18 20 25 29 30 32 32 31 31
44 45 41 35 36 37 34 34 37 37 39 42 42 40 39 38 38 42 43 38 35 31 26 28 32 29 25 24 27 33 31 21 13 11 12 16 23 25 24 25 28 29 30 27 24 23 23 22 23 23 24 24 23 21 18 18 22 26 29 31 32 31 31
38 42 46 41 38 38 34 31 34 39 39 40 42 40 36 34 35 37 38 39 42 40 31 27 31 32 27 20 19 24 29 30 24 16 12 13 15 19 22 25 28 30 30 28 25 24 24 24 25 25 24 24 23 21 19 18 20 23 26 28 31 32 30
26 35 40 43 44 41 38 36 35 38 39 37 38 39 38 36 34 33 34 36 39 40 35 29 28 30 28 24 22 20 22 30 29 20 15 15 16 19 23 26 29 29 27 26 23 23 24 26 28 28 25 23 21 19 18 18 19 23 25 26 29 31 29
20 27 32 43 45 33 35 46 40 31 31 33 33 35 37 38 37 35 34 34 33 33 33 32 30 29 30 31 29 23 21 26 30 27 24 21 18 22 26 25 24 26 27 25 23 23 24 27 31 31 26 21 18 16 16 16 19 22 25 26 28 30 30
19 25 27 32 32 22 31 49 44 31 29 29 28 30 30 30 33 35 35 33 29 26 27 29 28 27 30 34 34 30 25 25 27 29 29 24 19 23 27 25 22 22 23 24 23 22 20 24 30 31 25 21 18 16 16 17 19 23 26 28 29 31 31
18 23 24 16 13 18 32 41 39 36 36 32 27 27 27 25 24 27 31 34 34 31 28 27 26 24 25 30 33 33 32 31 30 31 32 31 27 25 26 27 27 25 25 26 28 26 22 22 28 31 27 23 20 19 18 19 21 24 27 30 31 32 32
20 18 18 10 9 15 19 23 30 35 34 32 29 26 24 23 21 17 21 28 32 33 33 34 35 32 26 25 27 28 28 30 32 35 38 38 37 34 29 27 28 28 30 30 31 32 28 24 25 29 29 27 26 24 23 23 22 23 27 30 32 33 33
24 19 16 13 14 16 15 16 23 28 25 24 25 23 17 14 14 13 15 17 20 24 27 30 35 37 32 28 27 26 22 20 23 31 37 39 41 40 35 33 33 31 32 31 29 30 32 29 27 29 29 29 29 28 27 27 24 24 28 32 33 34 34
21 18 13 10 8 13 21 22 19 21 19 15 16 18 13 8 11 14 15 15 15 18 20 21 26 30 31 30 32 31 27 23 22 26 31 36 39 37 32 32 37 37 34 33 29 27 29 29 29 30 30 29 30 30 30 30 28 26 29 33 36 36 36
14 12 6 9 8 10 19 22 19 20 17 13 16 15 9 8 13 17 18 18 17 17 18 19 19 19 20 24 31 34 32 30 28 29 31 33 32 32 31 30 35 39 40 40 40 37 35 35 35 35 37 36 35 36 36 35 35 32 31 34 39 40 38
5 5 2 8 12 10 12 15 17 19 17 17 18 11 3 6 14 19 21 24 23 22 20 19 18 19 20 21 24 25 25 25 25 27 31 33 30 29 33 34 35 37 37 39 45 47 44 42 41 41 42 43 43 44 43 42 43 41 36 35 39 41 40
4 3 4 6 6 6 9 13 15 18 19 18 14 9 7 10 15 20 24 25 27 27 25 21 19 20 23 25 23 21 20 20 21 21 23 30 31 27 28 34 39 41 39 37 40 42 39 38 39 40 43 46 48 49 49 48 48 46 42 38 37 40 42
9 8 6 6 4 1 8 14 17 19 17 13 12 13 15 16 16 19 22 21 22 25 27 25 22 20 22 27 28 27 25 22 23 24 24 26 28 26 23 24 31 40 44 43 42 41 41 42 42 43 46 49 51 52 53 54 52 48 44 42 40 41 44
10 11 5 3 5 5 5 10 15 18 15 12 12 14 19 20 18 17 17 17 17 19 22 23 24 23 23 25 28 31 33 29 26 29 32 31 30 30 28 24 25 32 39 41 40 37 36 37 39 41 44 48 52 53 52 53 52 46 43 44 44 44 47
7 9 6 3 4 9 12 13 15 18 18 16 14 16 16 16 17 17 18 20 21 22 23 23 24 24 24 24 25 28 33 35 32 31 35 34 31 31 30 26 24 27 33 38 40 38 34 32 35 40 43 45 49 51 53 53 50 46 45 46 46 46 49
6 11 13 13 7 6 12 19 19 21 25 25 22 20 17 14 16 19 21 23 25 26 26 25 24 24 24 25 25 24 28 35 37 36 36 36 33 31 32 31 27 25 29 34 38 40 40 37 37 40 42 43 43 45 49 52 50 47 48 50 51 52 54
11 12 13 17 12 9 11 19 25 24 26 29 27 25 23 19 19 20 21 23 25 26 25 24 23 22 22 23 24 24 25 28 34 37 37 37 36 34 33 33 30 27 28 31 34 37 38 37 39 41 44 48 49 46 48 53 54 51 53 56 58 58 58
14 14 11 14 12 12 11 16 30 31 26 27 28 26 26 25 23 22 22 23 25 25 23 22 22 22 24 26 27 28 28 28 31 34 36 37 39 39 37 37 36 35 35 36 36 37 37 37 40 43 46 52 54 51 53 59 59 56 56 57 57 56 54
17 17 16 18 13 13 10 11 26 33 27 26 27 26 26 26 24 24 24 25 25 24 23 23 24 24 25 27 29 30 30 31 31 33 35 37 39 41 42 42 43 43 44 46 46 45 44 45 47 49 50 52 52 50 52 59 59 58 58 55 49 46 45
22 20 19 20 15 14 9 9 17 28 29 27 26 25 23 23 22 22 22 22 23 23 24 24 25 25 25 27 28 28 29 30 31 32 34 36 38 40 42 44 45 46 46 48 48 49 49 49 50 51 52 53 52 50 51 54 54 52 53 49 40 35 35
25 20 17 16 13 13 10 11 14 22 25 25 23 20 17 17 18 19 19 20 21 23 24 24 25 25 25 26 27 27 26 27 29 30 32 34 36 39 40 41 43 45 46 46 47 48 50 51 54 55 55 53 51 47 46 49 49 45 43 41 36 31 29
25 20 17 17 16 14 14 15 14 16 18 17 17 16 15 16 18 20 21 21 22 22 22 23 23 23 22 23 24 24 24 23 24 26 28 31 35 38 38 36 35 38 41 41 40 40 41 43 44 43 41 40 38 34 35 37 36 33 29 29 30 31 31
22 20 17 19 22 20 18 18 17 14 13 12 13 15 18 20 21 22 21 21 21 20 19 20 20 20 20 20 21 21 20 20 20 22 25 28 30 32 32 27 20 19 24 28 29 27 25 25 25 25 26 26 23 20 18 17 19 21 22 25 27 28 27
18 19 18 19 22 23 22 20 18 15 14 12 12 15 18 18 17 17 17 17 18 18 17 18 19 18 17 17 18 19 19 19 19 19 20 19 18 19 20 19 13 9 11 16 19 18 14 11 12 14 14 13 13 15 17 20 22 21 18 18 18 17 18

ECMWFFLT2_700_spd_015.txt.gz
Wind_Speed
36 36 37 37 35 33 29 33 42 43 43 39 24 17 19 14 7 8 15 20 25 27 28 29 29 30 29 25 27 31 32 32 35 41 44 42 39 37 33 30 30 32 34 34 32 31 29 28 27 26 26 26 26 26 25 26 28 32 33 34 34 34 34
33 34 35 35 36 35 30 32 41 40 34 36 31 18 14 12 6 6 12 18 22 21 20 24 27 28 30 28 26 27 29 33 37 40 41 41 40 37 34 31 30 31 34 35 33 31 29 29 28 27 26 26 26 25 24 24 25 27 29 30 32 33 34
27 29 34 35 35 36 37 35 34 31 25 28 31 19 8 8 6 5 7 13 23 28 23 21 24 26 28 28 26 25 25 30 37 38 38 40 41 39 37 34 31 31 33 34 33 30 28 28 28 27 26 26 25 24 23 23 23 23 24 26 28 30 32
25 26 34 41 40 36 38 39 37 35 32 31 34 27 13 7 4 6 5 6 21 36 33 26 23 23 24 25 25 25 24 27 31 32 32 33 35 38 38 35 32 30 30 32 31 28 27 26 26 27 27 27 26 25 24 23 23 23 23 24 25 27 29
27 30 34 39 45 43 41 42 42 41 37 33 32 31 29 20 7 3 3 6 23 36 34 31 29 24 24 25 24 25 25 26 26 26 25 25 27 32 35 34 32 28 28 29 29 28 26 24 25 27 28 28 27 27 26 25 24 24 24 24 25 27 28
31 33 34 33 39 46 47 45 46 44 38 31 19 16 29 34 22 13 8 9 26 34 29 29 30 27 28 29 28 28 28 26 25 24 23 22 24 28 31 32 30 26 25 26 27 27 27 27 27 28 28 28 28 28 27 26 26 26 25 25 26 27 28
38 35 35 34 33 39 46 47 47 45 41 36 24 13 22 31 30 26 17 12 24 34 31 25 23 25 28 29 31 32 31 27 25 25 25 25 27 27 28 30 29 25 23 23 25 27 28 28 28 27 28 29 29 29 27 27 27 27 27 27 28 27 28
41 39 39 39 35 34 40 47 49 47 44 43 38 32 31 28 25 22 13 9 17 24 28 25 20 21 24 25 29 31 31 31 29 27 25 26 29 28 28 30 29 26 24 24 26 28 27 27 28 28 29 29 29 28 28 28 28 29 28 28 29 29 29
24 29 29 34 39 37 36 41 47 48 48 46 43 42 36 27 27 27 15 11 14 15 21 26 23 23 23 21 24 27 29 31 30 27 22 19 23 28 30 32 31 29 27 26 27 27 26 26 27 28 29 30 29 29 29 29 29 29 28 29 30 30 30
9 12 12 16 29 37 37 37 40 45 50 49 46 43 35 23 26 33 28 20 16 15 23 27 21 21 22 19 21 25 28 31 31 27 23 18 19 24 29 33 33 30 28 28 28 27 27 27 27 29 31 31 30 30 29 29 29 29 29 30 31 32 31
14 15 15 13 18 31 41 42 39 40 46 53 51 44 39 30 26 33 39 34 22 17 24 26 20 19 24 25 25 26 27 30 32 29 25 22 21 21 26 32 36 34 30 29 30 29 28 27 27 29 32 31 31 30 29 28 28 30 31 31 32 33 33
20 20 21 20 20 27 37 43 44 41 41 49 54 51 47 41 29 29 39 38 28 22 23 26 26 26 28 29 27 24 21 23 28 28 27 28 28 26 26 30 37 39 34 30 31 30 29 29 28 30 31 32 31 30 29 27 28 30 32 33 34 34 34
26 23 21 22 25 29 33 36 43 47 43 44 52 55 54 51 42 39 42 41 36 32 28 28 27 26 27 25 21 19 19 18 21 23 24 27 31 31 28 26 32 39 38 32 30 30 29 29 30 31 31 32 32 31 30 29 28 30 33 34 34 34 34
29 25 21 20 23 28 33 35 38 44 48 48 50 52 53 55 55 53 51 47 46 46 42 38 32 27 26 24 20 20 22 22 21 21 22 24 28 30 28 23 25 35 40 37 32 31 31 30 30 31 31 32 32 31 31 30 29 31 33 35 34 33 33
26 22 19 19 19 22 29 37 38 40 47 51 52 51 51 52 54 54 53 50 50 51 50 48 44 38 32 28 24 24 25 24 23 22 23 22 22 24 25 23 23 29 38 40 35 33 34 32 31 30 30 31 32 31 31 31 31 32 33 35 35 34 33
25 18 12 15 22 24 28 38 44 42 44 50 52 51 49 49 50 52 53 53 53 51 47 47 47 42 37 34 31 28 27 25 21 20 20 20 19 19 21 24 25 26 33 38 37 34 34 33 32 32 31 31 32 32 31 30 32 33 34 35 34 33 33
23 15 10 15 18 18 27 46 55 49 43 44 47 47 47 48 49 52 55 57 56 50 45 46 45 39 36 38 39 35 31 27 21 17 16 17 17 16 17 21 25 26 29 33 35 34 33 33 34 32 31 31 31 31 30 30 31 34 34 34 34 33 32
21 17 17 19 13 11 33 49 49 47 47 44 43 43 43 45 49 52 54 55 54 48 42 42 40 33 30 36 43 43 38 35 31 23 16 15 17 17 17 19 22 24 27 30 33 33 30 30 32 32 31 30 30 30 31 30 31 32 32 32 32 32 31
23 23 19 13 5 16 36 36 31 39 46 43 41 42 42 43 47 52 53 51 51 49 43 36 34 32 31 32 40 45 44 41 38 30 21 18 18 17 16 17 18 19 23 27 31 32 30 28 29 31 30 29 30 31 32 31 31 31 29 29 30 30 30
20 17 12 7 8 15 22 20 24 32 33 34 41 45 44 44 44 47 51 51 50 49 44 38 33 33 31 29 32 40 45 42 36 29 26 24 22 20 17 16 17 17 18 22 26 29 29 27 28 29 29 28 30 32 32 32 31 28 26 26 27 28 30
15 14 15 16 18 17 11 14 21 23 21 29 39 41 44 49 45 42 44 47 49 49 47 42 37 32 30 28 28 34 39 39 34 29 28 29 29 26 21 17 16 15 15 18 22 24 25 25 27 29 29 30 31 32 32 30 27 25 24 25 26 29 31
16 15 15 13 11 10 9 13 17 19 20 29 35 33 36 44 46 44 41 40 43 46 44 42 39 33 29 29 30 31 32 33 32 29 28 29 30 29 24 20 18 17 14 14 18 21 23 24 26 27 30 32 32 31 30 27 24 23 24 25 25 27 30
21 15 10 7 6 8 11 10 14 19 23 30 34 29 29 36 40 39 36 32 31 35 38 41 40 33 28 30 31 31 30 29 28 28 28 28 28 28 27 25 24 22 19 18 20 21 22 24 25 28 31 34 33 31 29 27 25 24 25 25 25 25 28
27 19 11 10 13 15 15 12 9 15 23 31 28 19 24 37 38 33 30 26 21 21 27 35 37 32 28 29 30 28 28 27 26 26 28 28 28 29 30 30 29 26 24 23 24 25 25 25 27 29 32 34 34 32 30 29 28 27 26 27 26 27 28
27 23 16 16 21 21 17 14 10 10 22 30 26 18 25 35 34 28 26 23 19 18 20 25 29 28 27 28 28 26 26 25 25 25 26 26 27 30 33 33 31 29 26 26 26 27 27 26 27 30 31 33 33 33 33 33 32 28 27 28 29 30 30
22 23 20 20 23 21 13 9 7 10 19 24 23 22 25 27 27 27 25 23 22 22 21 21 23 26 28 27 26 25 24 23 23 24 25 24 25 27 29 29 29 28 29 29 30 30 29 28 29 31 32 32 32 33 35 37 34 29 28 30 32 33 32
18 18 17 14 15 17 12 6 3 6 15 20 23 25 26 25 26 28 28 28 27 26 25 24 22 22 23 22 21 21 20 18 18 18 19 20 20 21 22 23 24 25 26 28 29 30 31 31 32 34 36 36 35 36 37 36 35 33 32 33 35 36 35
20 18 19 19 18 18 13 5 3 2 14 26 29 29 28 25 24 23 24 27 26 23 23 23 21 20 19 18 17 16 15 14 14 14 14 15 16 17 17 18 19 20 22 23 25 27 29 31 33 35 38 41 42 43 42 39 38 37 36 36 37 39 39
28 24 26 29 24 14 6 3 2 4 17 27 30 31 29 26 22 20 20 23 23 21 20 20 20 18 17 16 15 14 12 12 12 13 14 15 16 17 18 18 19 19 19 20 21 23 25 28 31 33 35 38 41 43 43 42 42 42 41 41 42 43 43
33 29 29 33 26 9 1 5 4 9 19 23 27 31 31 27 24 21 21 22 21 20 18 17 16 15 14 13 13 12 11 11 11 12 14 15 17 18 20 22 23 24 24 23 23 23 23 25 27 29 31 33 35 36 38 40 42 44 45 46 46 47 47
34 29 31 38 34 18 2 8 7 6 16 18 21 24 25 25 22 18 18 18 17 17 16 13 12 12 11 11 10 11 12 12 12 13 13 14 16 17 19 21 24 26 27 27 27 27 27 27 27 28 28 29 31 32 33 35 37 40 43 45 47 49 50
38 31 30 36 41 35 22 9 9 1 11 14 12 12 14 14 10 9 11 13 13 13 12 10 9 8 7 7 8 9 11 12 13 14 15 16 16 17 18 19 22 24 27 28 29 30 30 30 31 31 31 31 31 32 32 33 34 36 39 41 43 46 49
35 31 27 28 32 36 33 20 7 2 6 11 9 8 10 7 2 1 4 9 13 12 10 10 9 7 5 6 6 6 8 10 12 13 15 16 17 18 19 19 20 22 24 27 28 30 31 32 32 33 34 34 35 36 36 36 37 38 39 40 41 43 45
31 29 25 21 21 24 26 23 13 3 1 4 5 6 7 6 4 3 5 8 11 10 7 7 5 2 2 3 4 5 7 8 10 12 14 16 18 19 20 20 21 22 22 24 27 29 31 33 33 34 35 36 37 39 39 40 40 40 40 41 41 41 40
38 33 27 22 20 20 19 18 12 6 8 5 1 3 4 4 4 5 8 11 11 8 6 4 1 4 6 8 9 10 11 12 13 14 16 17 18 19 20 21 22 22 23 23 24 27 30 33 35 36 38 39 40 40 41 41 42 43 44 44 44 43 42
34 31 27 24 21 18 17 17 16 13 10 8 4 1 1 1 4 7 9 10 11 9 7 6 6 7 9 11 13 14 15 15 15 17 18 18 19 19 19 20 21 21 23 23 24 24 26 29 32 34 36 38 40 41 41 43 44 45 47 49 50 50 49
30 26 23 22 20 17 17 19 19 16 11 8 4 1 3 2 4 7 8 8 9 9 8 7 8 9 11 13 14 15 16 16 16 16 17 18 19 19 19 18 17 17 18 19 19 20 20 22 24 27 29 32 34 36 38 40 42 44 45 46 49 52 54

ECMWFFLT2_700_spd_021.txt.gz
Wind_Speed
36 33 31 32 28 23 24 28 32 32 30 27 16 7 5 5 5 7 14 19 20 18 22 25 22 20 20 21 24 27 28 28 26 27 25 22 19 17 16 16 16 17 21 27 31 32 32 32 31 29 28 28 28 28 29 30 30 31 32 33 33 32 32
26 30 30 29 29 28 25 27 31 28 22 23 20 11 6 7 7 7 13 19 19 16 20 25 26 27 27 27 29 30 29 28 26 26 25 22 18 16 16 17 17 17 17 21 28 32 33 32 31 31 30 29 28 27 27 28 28 29 29 30 31 31 32
22 26 29 26 29 32 29 27 27 23 16 18 22 15 6 8 8 5 8 14 18 23 23 17 16 19 22 25 27 29 31 32 30 28 26 22 18 17 17 17 16 15 13 15 20 27 32 33 32 31 31 31 30 29 28 27 26 27 28 29 30 30 31
19 24 30 29 30 33 33 28 23 22 18 16 24 23 11 7 7 5 4 7 15 27 34 31 26 23 20 21 23 25 28 31 31 30 29 24 19 18 17 16 15 14 12 13 15 20 26 30 32 31 32 33 33 31 30 29 28 28 29 30 30 30 31
20 25 32 32 32 36 37 31 24 25 23 14 18 25 20 11 6 4 5 6 7 10 15 19 22 23 23 24 26 27 28 27 26 27 29 27 21 18 19 18 16 15 15 14 14 16 19 25 30 32 34 35 34 33 32 30 30 30 29 29 29 29 30
22 25 26 26 27 33 36 35 31 31 28 19 12 15 21 21 13 6 5 8 8 5 3 2 2 4 10 14 17 22 24 23 21 20 22 26 24 20 20 20 17 18 17 13 11 13 16 20 25 30 35 35 35 35 33 31 32 32 31 31 29 27 27
20 21 22 22 24 31 35 36 37 35 31 28 18 10 17 23 19 13 8 10 12 12 13 13 9 8 9 11 11 12 16 18 18 17 17 21 24 23 23 23 22 23 20 14 10 11 15 17 20 24 30 34 35 35 34 33 34 33 32 32 30 28 27
17 18 21 24 27 33 36 36 36 33 32 33 29 22 21 20 18 16 10 10 11 7 5 3 4 5 6 6 6 6 9 14 18 19 19 19 22 25 25 25 25 26 23 17 13 11 14 17 20 21 24 29 32 34 35 35 34 33 32 32 31 30 29
14 15 17 22 27 30 33 33 33 31 32 34 34 30 26 20 20 22 16 10 7 6 4 3 2 4 5 5 5 5 6 7 12 18 21 21 21 22 23 24 26 26 23 18 13 10 13 18 22 24 23 26 29 32 33 33 33 33 33 33 31 30 29
11 11 12 18 23 24 26 29 32 32 32 33 32 30 24 19 21 27 27 17 7 8 10 7 6 7 6 6 5 5 5 4 6 11 17 20 21 22 22 23 23 23 22 18 13 10 12 17 23 25 26 27 29 30 30 30 31 32 33 33 32 31 30
11 8 10 18 25 24 22 24 28 30 31 32 33 31 25 23 25 30 38 34 21 19 19 13 12 11 9 10 9 8 7 6 7 8 11 14 18 22 24 25 24 23 23 22 18 12 12 17 21 23 25 27 29 30 31 30 31 32 32 32 32 32 31
15 12 12 17 24 26 23 24 26 26 26 30 35 33 26 26 27 28 38 43 39 37 34 25 20 16 14 14 12 10 11 9 8 8 9 10 12 16 20 22 22 23 24 25 21 16 13 16 21 23 24 27 29 30 31 31 31 31 31 32 33 33 32
13 14 13 12 16 20 22 25 28 28 27 27 31 35 32 29 27 26 32 39 41 44 42 37 33 28 24 22 16 12 16 15 12 10 11 12 11 12 14 16 17 19 22 24 23 20 15 15 21 24 24 26 29 31 31 31 31 30 31 32 32 33 34
9 10 12 12 12 15 19 23 27 31 32 30 29 33 34 33 31 31 32 33 35 37 37 37 37 33 32 32 28 26 26 25 22 18 17 16 12 9 8 9 11 14 18 22 24 23 19 14 17 23 26 27 29 31 32 32 32 32 32 32 33 34 35
10 10 9 10 11 13 18 23 26 30 33 34 33 31 31 32 31 35 39 39 39 38 34 34 35 33 33 34 34 35 34 32 29 25 23 21 17 13 10 9 10 11 14 20 24 25 22 16 15 20 26 29 29 30 32 33 33 33 32 33 33 35 36
12 12 11 12 13 15 19 24 28 30 31 33 33 32 32 31 28 30 35 36 39 40 36 34 34 33 32 32 32 32 32 31 30 29 28 27 24 21 19 16 15 13 13 17 22 25 24 20 17 19 24 29 31 31 31 32 33 32 32 32 33 34 36
11 13 14 13 13 14 16 22 29 32 33 34 33 32 33 31 28 28 26 26 33 37 35 32 32 32 32 32 30 29 28 28 30 31 31 30 28 26 24 21 19 17 15 15 20 24 25 23 21 20 23 28 31 33 32 31 32 32 31 31 32 33 34
8 13 16 14 12 10 9 13 21 27 31 35 36 35 35 34 32 31 28 29 34 35 30 27 26 27 31 32 31 29 27 27 28 30 30 30 29 27 25 23 20 20 18 16 19 22 24 24 23 22 23 26 29 33 34 33 32 31 30 29 29 30 31
8 12 13 9 9 10 9 10 14 17 18 22 26 30 33 35 36 38 38 37 35 33 28 24 20 20 24 28 29 28 25 25 26 27 28 29 28 26 24 23 22 22 21 18 19 21 23 25 25 24 24 26 27 30 33 33 33 31 29 28 28 29 30
8 7 9 9 6 5 10 12 11 11 12 13 15 18 21 25 29 34 38 39 38 36 34 31 26 22 22 24 26 27 25 23 24 25 26 27 26 25 24 23 22 24 23 19 18 20 23 25 26 25 24 27 29 29 29 31 31 30 30 29 29 29 29
12 10 14 18 15 12 16 18 11 10 12 12 12 14 16 21 25 27 28 28 30 32 33 35 34 30 27 27 26 25 24 23 24 24 24 25 24 23 22 22 23 26 25 20 17 18 20 22 24 25 25 28 31 31 29 29 28 29 29 29 30 30 29
14 13 13 14 14 15 21 24 20 16 14 12 12 15 17 22 27 28 28 25 22 22 23 27 31 32 34 34 26 20 21 22 22 22 22 23 23 22 20 19 22 27 27 22 18 17 18 20 22 25 26 28 31 32 31 29 29 30 31 30 30 31 31
13 15 14 13 12 9 9 15 20 18 15 13 13 16 17 22 26 27 29 28 26 25 23 22 24 30 37 36 25 17 19 21 21 21 21 21 21 22 20 18 19 25 28 25 22 20 19 18 20 23 26 28 30 32 32 30 30 31 32 31 31 33 34
17 17 16 16 16 11 6 10 15 16 14 13 12 9 7 11 16 19 21 25 28 28 26 24 24 27 33 33 25 20 21 22 22 22 22 21 21 21 21 19 18 21 26 27 26 23 22 20 19 20 23 26 28 30 31 31 31 29 29 31 33 34 36
21 20 18 17 18 16 15 16 18 20 19 16 13 11 7 6 10 12 12 16 22 25 27 27 26 26 27 27 25 25 26 25 24 23 22 22 21 21 21 20 19 19 21 23 24 25 24 23 21 21 21 23 25 27 29 31 30 29 28 30 33 35 36
20 21 20 17 17 18 19 20 19 22 22 19 17 18 17 16 19 19 15 14 16 19 23 26 28 28 26 25 25 27 28 27 26 25 24 23 22 21 21 22 21 20 19 20 22 24 25 24 23 23 23 22 23 25 27 28 29 30 30 30 32 34 35
19 20 18 13 12 13 14 16 19 22 26 27 26 25 23 21 22 22 22 21 18 18 20 22 25 27 27 27 28 28 29 29 28 27 26 24 23 23 22 23 23 22 21 20 21 24 26 26 26 26 26 25 24 23 24 25 26 28 28 28 29 31 33
18 19 18 18 17 10 6 12 19 24 28 31 30 27 25 25 24 22 22 23 22 21 22 23 24 25 27 29 31 30 30 30 28 28 27 26 26 25 24 25 24 23 23 22 22 24 27 29 30 30 29 28 27 25 25 25 24 25 26 27 28 29 31
19 18 20 23 21 12 10 17 19 20 25 29 29 27 24 24 25 25 24 24 23 22 23 25 26 27 29 31 31 29 28 28 28 29 29 28 28 27 27 27 26 25 25 24 23 24 27 30 32 33 33 31 29 28 28 27 27 26 26 27 28 29 31
21 22 25 28 24 17 15 16 13 12 19 24 26 26 24 23 24 25 25 25 24 23 25 27 26 26 28 28 26 26 27 29 30 30 31 30 30 29 29 28 28 27 26 25 24 24 26 29 32 34 35 33 32 30 30 29 29 28 28 28 30 31 31
21 24 26 28 29 26 20 16 13 11 14 17 18 20 21 22 23 22 23 23 22 21 22 23 21 21 23 25 26 28 30 31 31 32 32 31 31 30 29 29 29 28 28 27 26 25 25 27 30 34 35 34 33 32 32 31 31 30 30 30 30 31 32
23 26 26 26 31 33 27 21 17 13 11 14 17 18 20 23 21 18 18 19 20 21 21 22 23 24 26 28 29 31 32 31 31 31 32 32 31 31 30 29 28 28 28 28 28 28 27 28 30 34 35 35 33 33 33 33 33 32 32 31 31 32 32
26 28 28 26 29 33 32 27 20 13 8 13 17 19 22 25 22 16 16 18 22 24 24 26 28 29 31 32 32 32 33 32 31 31 31 31 31 31 30 29 28 27 27 28 29 29 29 29 30 32 33 33 32 32 32 32 31 31 30 30 31 32 32
28 30 29 26 28 33 34 27 19 14 10 12 15 17 22 27 25 18 14 16 21 23 24 26 28 30 33 33 32 32 33 33 32 30 29 30 30 30 29 28 27 26 26 27 28 29 28 28 28 29 29 29 29 29 29 30 29 29 29 29 29 30 31
31 31 30 30 32 35 34 27 20 18 17 14 14 15 18 25 28 20 14 15 18 20 21 24 26 27 31 32 30 30 31 32 31 30 29 28 28 28 29 28 26 25 24 24 25 25 25 25 26 27 27 27 28 28 29 29 29 29 30 30 31 31 32
33 31 31 33 36 38 37 31 24 23 22 17 16 14 17 22 28 22 15 15 18 19 20 21 22 23 25 27 26 26 27 29 29 28 27 26 25 25 26 25 24 23 22 22 22 22 22 23 24 24 25 26 26 27 28 28 29 30 31 31 32 33 35
29 31 31 33 35 37 38 34 29 28 26 19 16 16 18 22 28 26 18 15 16 18 19 19 20 20 21 21 21 21 22 24 25 25 24 23 22 22 22 21 21 20 20 20 21 21 21 21 21 22 23 23 24 25 26 27 28 29 30 31 33 34 36

ECMWFFLT2_700_spd_027.txt.gz
Wind_Speed
30 34 36 32 26 24 26 29 31 29 25 20 14 11 12 13 10 11 18 23 20 16 16 16 16 19 27 30 27 26 25 26 27 27 29 31 27 24 22 20 18 17 16 17 20 23 24 23 22 22 22 21 20 21 23 27 28 29 31 32 32 33 32
31 30 33 34 30 24 24 30 31 26 21 20 17 12 8 8 8 9 15 19 19 16 14 15 18 19 22 28 30 28 27 28 28 28 29 31 28 25 24 21 18 18 16 14 17 21 23 23 23 22 21 22 21 19 19 23 27 29 30 31 31 32 32
31 30 32 34 34 30 24 24 27 25 21 21 20 14 9 9 7 7 13 15 16 18 16 14 18 21 21 23 26 28 27 29 30 29 29 29 28 28 26 23 22 20 16 14 16 18 20 22 24 25 24 23 23 20 18 19 23 26 27 29 30 31 31
29 30 34 36 37 36 28 22 24 28 23 20 23 18 13 10 7 6 11 12 14 19 19 14 14 18 21 21 22 23 24 25 28 29 29 29 30 29 26 24 23 20 16 15 15 15 17 20 23 27 27 25 24 23 21 18 19 22 26 28 30 30 29
31 32 37 38 37 39 36 29 26 28 26 21 20 21 19 15 8 5 7 8 12 16 17 15 13 15 19 21 21 21 21 23 24 26 27 28 29 29 28 26 24 19 16 15 15 14 16 19 22 26 27 26 26 25 24 21 19 20 23 26 28 29 29
33 34 35 35 35 37 37 34 28 27 28 24 17 15 20 21 13 8 6 5 5 8 9 12 14 14 16 18 19 19 20 21 21 24 25 26 29 29 28 27 25 20 17 15 14 13 14 17 20 23 26 27 27 27 26 25 23 22 21 21 23 25 28
29 29 29 30 32 34 34 34 30 27 28 28 20 12 16 20 17 13 10 7 4 10 8 9 10 12 14 16 18 17 18 19 19 21 22 23 27 27 25 25 24 21 18 17 16 14 12 14 17 20 24 27 28 28 28 28 27 24 22 21 20 21 24
23 25 27 29 29 31 34 35 33 30 29 28 23 14 13 16 18 16 11 7 5 11 13 11 8 8 11 14 17 17 16 17 18 19 19 20 24 26 25 23 22 23 22 20 19 17 14 13 15 18 22 25 28 30 30 29 28 26 25 24 23 22 22
18 21 22 26 31 33 34 35 35 33 30 27 24 18 14 14 16 18 14 9 8 12 13 8 6 8 12 13 15 16 15 16 17 17 17 20 24 26 25 23 22 24 24 23 22 19 16 14 15 16 19 24 28 30 31 31 31 30 29 28 27 25 24
14 15 16 23 33 35 32 32 35 35 33 29 27 23 17 14 14 17 16 11 10 12 10 9 10 11 13 13 15 16 15 15 17 18 18 20 23 23 20 17 17 19 21 23 24 21 17 16 15 17 20 23 27 30 31 33 34 34 33 32 31 28 26
12 6 7 12 24 32 32 32 33 35 36 32 29 26 22 17 14 15 16 12 12 14 12 13 14 13 13 14 16 17 17 15 14 16 16 17 18 18 15 13 13 14 16 20 21 18 17 16 16 16 18 21 25 29 31 34 37 38 36 36 35 32 30
19 7 4 2 14 26 29 32 33 33 36 35 33 29 25 20 16 15 17 14 9 13 15 14 15 16 15 16 17 17 16 13 10 10 11 10 11 12 13 13 13 13 13 14 15 15 16 17 15 14 14 16 20 25 30 33 36 38 39 39 38 36 34
23 14 9 5 9 16 19 27 34 33 34 37 37 33 26 22 18 14 18 21 13 10 15 16 16 16 15 14 13 11 11 11 8 7 8 8 6 7 10 13 13 14 13 14 15 16 16 17 16 14 13 13 15 19 25 31 35 38 40 41 40 39 38
23 17 13 9 7 9 11 18 27 32 34 34 35 34 28 24 21 14 14 22 21 14 14 16 16 15 12 10 8 5 5 6 5 4 5 5 5 6 8 10 12 15 16 15 16 16 16 18 18 17 16 15 15 17 20 26 32 36 39 39 40 40 38
23 20 15 11 9 8 9 11 16 25 33 32 32 33 30 26 24 18 12 15 21 19 15 13 12 14 13 7 6 7 5 4 4 3 4 4 4 5 6 7 11 17 18 16 15 14 14 17 19 19 18 16 16 17 19 22 27 34 37 37 37 38 38
19 20 16 14 12 10 12 13 13 18 24 28 30 29 27 25 23 20 15 14 16 16 15 12 10 12 12 9 9 11 10 8 8 8 6 5 5 5 5 6 9 13 15 15 14 15 15 16 19 19 19 17 16 16 18 21 25 30 34 34 33 34 36
18 20 19 18 14 11 16 20 20 17 17 21 23 22 22 22 19 18 18 16 14 12 12 13 12 11 12 12 11 11 11 12 13 14 10 7 6 6 7 8 7 8 11 13 15 16 16 16 18 19 20 19 17 16 17 20 23 26 30 31 29 29 31
18 17 16 18 17 15 18 21 21 19 19 20 20 19 20 20 20 19 16 13 13 12 11 13 14 12 11 10 9 7 8 11 14 16 14 12 11 10 10 10 10 11 13 15 16 17 16 16 17 18 20 21 20 18 17 18 21 23 27 29 27 24 25
16 16 14 13 16 18 19 18 18 20 23 24 22 22 21 21 21 22 18 15 13 12 10 10 11 12 12 10 9 10 10 11 13 15 15 15 16 15 13 14 16 17 18 17 17 17 17 18 19 19 20 22 23 21 18 18 20 23 26 29 27 22 21
11 14 15 11 9 11 15 16 15 17 20 24 26 27 25 23 21 20 20 20 16 13 13 11 10 10 10 11 15 17 16 14 13 14 15 13 13 15 16 19 20 20 20 19 19 18 18 19 20 20 20 22 23 23 21 19 21 23 25 28 28 24 21
12 12 16 13 7 6 11 15 14 13 16 20 23 25 25 25 23 19 16 15 15 13 12 11 11 12 14 17 21 20 17 15 15 15 14 13 15 19 21 21 21 22 23 22 20 19 19 19 20 21 21 22 22 22 22 22 21 23 24 27 30 28 24
16 15 15 14 11 10 14 15 13 12 15 16 16 17 19 20 21 22 19 15 14 14 12 12 15 19 22 22 21 19 17 17 19 19 17 17 20 23 22 19 20 24 26 24 22 21 22 22 21 21 22 21 21 21 22 23 23 23 23 24 27 31 31
19 20 17 14 13 12 13 14 14 13 14 13 13 14 18 17 17 22 25 20 16 17 17 18 23 25 23 18 16 18 20 20 21 21 21 22 22 20 19 20 21 23 24 25 24 23 23 24 24 23 23 22 21 20 21 23 24 23 23 22 23 28 33
20 20 19 17 15 10 7 10 13 14 12 13 13 12 14 16 14 19 23 16 11 14 16 19 24 25 21 17 17 21 23 21 22 22 21 22 21 19 20 22 20 20 22 25 25 24 25 26 26 26 25 23 22 21 21 22 24 24 24 23 22 24 29
23 21 19 20 17 10 6 8 11 12 12 14 14 10 11 16 14 16 20 15 11 16 19 18 19 20 22 24 26 26 25 24 24 23 21 21 22 21 22 22 20 20 21 22 23 24 24 25 27 29 29 26 23 22 21 21 22 24 26 26 25 24 25
23 23 21 21 17 12 11 10 10 12 12 12 13 11 11 12 10 11 17 18 18 21 22 21 21 22 23 25 26 28 28 27 27 26 24 23 23 23 24 23 22 21 21 21 22 23 23 24 26 29 30 29 26 23 21 20 20 22 26 28 27 27 26
21 24 23 19 13 10 15 16 12 12 11 10 11 13 10 8 7 9 13 16 17 20 21 20 19 21 23 24 25 26 27 28 28 28 27 25 24 24 25 25 24 22 21 21 23 24 24 23 25 27 30 31 29 26 23 22 20 20 24 27 28 28 26
20 23 21 18 12 8 14 17 11 10 15 15 13 13 10 7 8 10 11 12 14 16 18 16 14 14 17 22 24 25 26 26 26 26 26 27 26 25 25 26 25 24 23 22 24 26 26 24 23 24 26 29 30 29 26 24 22 20 21 23 24 24 24
18 21 16 12 12 10 12 14 10 11 19 20 15 15 14 11 10 11 11 13 15 14 13 12 12 12 12 16 18 20 22 24 25 25 25 26 27 27 27 27 27 27 27 25 24 27 27 26 24 23 24 25 27 29 28 25 23 22 21 21 21 20 20
18 24 20 11 8 9 9 11 15 19 23 22 20 20 20 19 17 15 15 16 17 18 16 14 13 13 14 15 16 17 18 19 20 22 23 25 28 29 29 29 28 29 29 27 25 26 28 28 25 23 22 23 24 25 26 26 25 24 23 22 21 20 20
16 23 24 16 10 10 9 9 14 19 22 25 27 28 28 28 27 24 22 20 19 20 20 20 18 17 17 17 17 17 18 19 19 19 20 22 26 28 30 30 29 29 30 29 27 26 27 28 27 24 23 22 22 22 24 25 25 25 25 24 23 22 22
18 20 23 20 17 18 18 14 15 16 17 23 29 31 31 31 29 28 26 24 22 21 20 20 22 21 20 19 18 18 18 18 18 20 21 21 23 26 29 31 30 30 31 31 29 28 27 27 26 25 23 22 21 22 23 24 25 25 25 26 26 25 24
20 20 21 22 23 25 26 22 19 19 22 26 28 29 28 26 25 25 24 24 24 24 22 20 21 22 22 22 21 21 20 19 19 20 21 22 23 25 27 29 30 30 31 31 30 30 28 27 25 25 24 23 22 22 22 22 22 23 24 24 25 26 26
20 20 18 19 21 24 24 23 21 25 32 34 33 30 28 27 26 25 25 24 24 25 24 22 22 22 23 23 23 23 22 23 23 24 24 24 25 26 27 28 29 30 31 31 31 30 29 27 25 24 24 24 24 23 23 22 21 21 21 22 24 25 27
21 19 18 19 21 22 23 25 25 27 32 35 34 32 30 29 29 28 28 28 27 26 26 25 24 23 24 26 27 28 27 26 27 27 27 28 28 29 29 29 29 29 31 31 30 29 28 27 26 25 25 25 25 25 24 24 23 22 22 23 25 26 26
25 23 21 21 23 24 24 27 29 31 33 34 34 33 32 29 28 29 30 30 29 27 27 27 26 23 23 24 26 28 29 30 30 30 30 31 32 31 30 30 29 30 31 31 30 29 28 28 28 27 27 27 26 26 26 25 25 24 24 25 25 26 26
29 29 26 25 25 26 26 27 29 32 33 34 34 35 33 29 26 27 29 29 27 25 26 26 24 21 19 19 20 20 22 26 28 30 30 31 31 30 30 29 29 30 31 31 30 30 29 30 30 29 29 29 28 28 28 27 26 25 25 25 25 25 25

ECMWFFLT2_700_spd_030.txt.gz
Wind_Speed
30 33 36 33 28 26 28 32 34 31 28 24 17 12 17 18 11 11 19 25 26 23 20 21 23 25 29 31 28 26 28 30 34 36 34 32 33 29 26 25 22 22 25 26 29 32 33 31 29 26 23 20 17 14 16 22 26 26 26 26 26 26 27
33 31 34 36 31 25 27 33 32 27 24 24 20 12 10 12 9 11 19 22 23 21 18 20 24 24 24 29 31 29 27 29 33 38 37 35 32 30 30 28 22 20 21 19 22 28 30 28 25 23 22 21 19 15 14 18 23 26 26 26 26 26 27
34 31 33 35 35 30 26 28 29 27 22 22 23 14 8 9 7 7 15 19 20 23 22 21 24 27 25 25 29 31 30 27 31 37 40 37 32 30 32 31 24 22 22 19 20 24 27 28 26 25 24 22 20 17 15 16 19 22 25 26 26 27 27
34 33 36 37 38 35 28 24 27 30 24 21 23 19 12 9 6 6 10 12 14 18 21 20 21 25 25 24 26 31 32 27 28 34 37 35 33 32 33 33 29 26 23 21 20 21 25 28 26 26 26 24 21 19 17 16 17 20 23 26 27 27 28
37 37 39 40 38 38 35 29 28 29 26 22 21 21 21 14 6 5 6 8 13 18 20 19 19 22 22 22 24 29 32 29 27 29 32 35 36 33 33 35 32 27 22 20 19 19 23 26 26 26 26 26 24 21 20 18 17 18 20 24 27 28 27
40 40 37 38 37 38 38 32 29 28 28 25 17 15 22 21 13 7 6 6 8 12 18 19 18 19 19 19 20 25 29 29 29 29 30 35 35 29 31 35 30 25 24 23 22 22 22 24 25 23 24 26 26 23 22 21 20 19 19 21 24 25 26
32 36 32 33 34 35 36 33 29 27 28 29 21 12 17 22 19 14 11 7 2 5 13 16 12 14 18 18 18 21 26 27 28 30 30 34 34 28 31 34 29 25 28 27 26 24 20 20 22 21 21 24 24 23 23 23 23 22 21 21 21 23 25
25 31 31 31 31 32 35 36 34 29 28 30 24 16 16 19 20 17 12 7 4 8 12 14 9 10 14 17 18 20 24 24 23 27 30 33 34 32 32 31 28 29 30 27 25 22 17 17 19 19 19 21 22 24 24 24 24 24 22 21 20 21 24
19 27 27 28 33 35 35 37 37 33 29 28 25 21 18 16 19 20 13 7 8 12 13 12 9 11 13 17 19 18 22 22 19 23 28 29 32 35 32 30 30 30 28 24 23 21 17 17 19 19 18 19 21 23 24 25 26 25 24 23 21 20 22
13 18 19 25 33 35 34 33 37 37 32 29 27 24 19 15 16 21 19 11 13 17 11 9 10 13 13 16 19 17 20 20 17 24 29 29 32 33 29 32 35 30 26 24 24 22 18 16 17 18 16 18 20 21 23 25 27 27 26 26 25 22 22
13 9 9 17 26 31 33 32 34 38 36 30 28 26 22 17 16 21 21 12 15 16 10 9 13 14 14 19 20 20 23 20 18 24 29 29 31 29 25 29 33 29 27 27 27 27 21 14 14 16 15 16 18 19 21 24 26 28 28 28 28 26 24
18 7 3 1 8 19 31 34 33 36 38 34 30 27 24 18 14 17 20 13 11 15 14 15 16 14 16 21 20 20 22 17 15 22 26 28 31 31 30 32 31 30 27 24 25 28 23 16 16 17 16 17 17 18 19 21 24 27 29 30 31 30 27
21 17 11 7 4 6 16 29 34 34 36 38 35 28 25 21 15 15 18 13 9 15 18 19 20 17 18 22 21 18 17 13 14 18 20 25 31 31 32 32 30 30 28 24 25 26 22 19 20 20 18 18 17 16 16 18 21 25 28 29 31 31 30
23 20 18 14 11 9 11 20 33 34 33 36 36 30 25 23 18 15 17 13 10 17 19 19 21 18 18 23 20 15 16 16 18 19 16 16 21 22 22 23 24 27 27 25 24 22 22 23 21 20 20 18 16 14 13 14 16 21 25 27 30 32 31
22 23 23 18 14 13 14 14 23 33 33 34 36 32 27 25 20 18 20 16 14 18 18 22 28 21 20 26 19 13 18 17 17 19 15 11 14 15 15 17 19 21 21 20 19 18 18 19 18 18 19 18 16 15 13 13 13 17 21 23 26 28 30
18 19 22 20 13 11 16 17 17 25 27 30 35 33 29 28 23 20 23 22 20 19 19 27 31 20 18 25 18 13 16 14 13 16 11 9 15 14 10 13 16 20 21 19 17 16 16 16 17 18 18 18 18 16 15 15 14 15 17 19 21 24 27
20 18 19 21 13 8 16 19 15 15 16 23 33 35 31 28 26 23 22 23 23 19 20 25 23 12 12 17 13 9 11 10 11 12 7 7 12 11 9 11 14 18 20 15 12 14 15 17 18 18 19 19 19 18 17 18 17 15 16 17 18 19 21
19 19 18 20 15 11 14 18 16 12 11 15 23 30 33 30 28 26 22 26 25 14 15 18 14 9 9 11 10 10 10 9 9 9 6 6 8 8 9 11 13 15 15 13 14 15 16 16 16 16 19 19 19 19 19 20 20 18 16 16 17 16 16
14 18 20 16 14 16 14 13 18 17 12 11 8 15 32 36 29 23 22 27 26 11 7 11 11 9 10 10 11 12 10 10 11 10 6 4 4 4 6 11 16 18 17 18 19 20 19 18 15 15 19 21 21 21 21 20 21 20 18 17 16 15 14
10 17 22 14 10 17 17 14 22 21 15 14 9 5 19 27 21 16 17 21 22 14 8 9 11 12 11 10 12 13 11 9 7 6 5 5 5 6 9 15 19 20 19 18 18 19 20 19 16 15 18 20 21 21 21 21 22 21 20 18 16 15 15
8 11 20 18 11 14 18 19 25 24 18 17 12 6 10 14 12 14 15 15 16 15 12 10 10 13 12 8 7 9 9 6 4 6 9 11 14 15 15 18 19 19 21 19 17 19 20 18 16 17 17 18 19 21 22 22 22 22 22 19 17 16 16
9 9 13 17 13 11 16 19 21 22 19 14 8 8 11 10 10 13 13 13 15 15 15 14 10 10 11 8 4 5 10 12 12 15 17 18 18 17 16 17 18 18 18 18 19 21 22 20 18 18 18 19 20 21 23 23 23 23 23 21 18 17 17
12 11 10 11 14 12 11 17 22 22 18 13 7 8 12 12 12 14 14 17 18 14 12 12 9 8 11 8 5 10 15 17 18 19 20 20 20 17 16 18 18 17 16 18 19 21 23 22 20 18 18 19 20 21 22 23 24 24 23 22 20 19 18
12 12 12 10 11 5 2 7 21 22 19 21 15 8 8 12 15 17 14 13 16 14 13 13 11 11 11 9 12 16 16 18 22 21 20 20 21 20 20 20 19 17 19 20 20 21 23 23 21 21 20 19 20 21 21 22 23 23 23 24 23 21 20
13 12 16 12 6 7 7 5 11 17 22 26 21 11 9 12 17 18 13 10 13 17 16 16 14 14 16 20 21 20 18 20 24 23 21 20 19 19 21 21 20 19 20 21 21 21 23 23 24 24 22 21 21 21 22 22 21 21 23 25 25 24 22
15 12 16 13 3 8 7 6 9 16 19 15 12 13 12 10 19 21 13 7 13 17 15 18 20 21 24 27 27 26 24 24 25 24 24 23 21 19 19 20 21 21 20 21 22 22 23 24 25 25 24 24 23 23 24 24 21 21 24 25 25 25 24
18 14 15 11 1 6 8 9 11 14 12 9 11 15 12 9 20 26 18 10 13 16 17 20 23 24 26 27 27 27 28 29 29 28 27 25 23 21 19 21 22 21 20 22 22 23 23 23 23 25 26 25 25 25 26 27 25 23 23 24 25 24 24
19 17 12 7 3 5 5 4 7 7 7 8 8 12 13 13 17 24 23 19 16 15 16 17 16 18 22 25 24 23 25 28 30 31 30 28 27 25 23 23 23 22 22 24 24 23 23 22 22 25 26 26 26 27 28 28 28 27 25 24 24 24 24
19 17 9 5 7 6 1 1 6 9 10 8 4 8 14 15 16 20 23 21 17 14 14 13 13 16 19 20 20 21 23 25 26 28 29 28 28 28 26 26 25 24 24 25 24 24 23 22 22 24 26 27 27 26 27 29 29 29 28 26 24 24 24
17 21 16 12 10 4 5 11 13 13 12 7 3 10 17 18 18 19 18 16 15 12 10 9 12 15 16 16 17 18 19 21 23 24 25 26 28 28 27 27 26 25 25 25 25 25 24 23 22 23 26 28 27 26 27 28 28 29 29 28 26 24 24
12 18 18 16 13 6 7 13 17 16 13 8 10 17 20 18 17 15 13 13 12 10 8 7 9 11 12 13 14 14 15 17 18 19 21 23 25 25 26 25 25 25 26 26 25 25 26 25 23 22 25 27 28 27 27 26 26 27 28 28 27 25 24
14 16 16 16 14 10 6 13 20 21 17 15 19 24 23 21 19 17 15 15 14 13 11 10 9 10 11 11 11 11 11 11 13 14 16 18 19 21 22 23 23 24 25 26 26 25 26 26 25 23 24 26 28 28 27 25 25 25 26 27 27 26 25
15 17 19 19 19 17 14 16 20 23 23 24 28 30 28 26 25 22 20 19 19 18 17 16 14 13 13 12 12 12 11 11 11 12 12 13 15 17 18 20 21 21 22 25 26 25 24 24 26 25 24 25 28 29 28 25 24 25 25 27 27 27 27
15 15 16 17 18 18 17 16 17 20 25 29 33 34 33 31 30 28 26 24 23 23 21 20 19 18 16 14 13 13 14 14 14 14 13 14 15 16 16 17 18 18 19 22 25 25 24 24 25 26 25 26 28 29 29 26 25 24 24 25 26 27 27
19 17 17 17 17 17 17 17 18 21 24 28 34 39 39 35 34 33 31 30 29 27 24 22 21 21 20 19 17 16 16 17 18 18 18 19 20 20 20 20 19 19 19 21 22 23 23 23 24 25 26 27 28 29 29 27 26 25 24 25 26 26 27
24 23 22 22 22 22 21 21 23 26 27 29 35 42 43 40 38 37 36 35 34 32 30 28 26 26 25 24 23 22 21 21 22 22 22 23 24 25 25 24 24 24 23 22 22 22 22 23 24 25 26 27 27 27 28 27 26 24 24 25 26 26 25
25 26 27 28 29 30 29 27 29 32 33 34 38 41 43 42 42 42 42 42 42 41 41 38 35 34 32 30 29 29 29 28 27 27 26 26 26 27 27 28 28 27 26 25 24 23 23 23 23 24 26 26 26 27 26 25 23 22 22 24 25 24 24

ECMWFFLT2_700_spd_033.txt.gz
Wind_Speed
34 32 35 35 31 29 32 37 37 35 35 28 12 7 12 11 4 9 20 27 30 26 23 25 28 31 30 25 26 32 34 38 43 44 43 39 37 35 30 26 24 25 27 27 25 24 25 25 24 22 21 20 19 18 18 21 24 25 25 24 24 23 24
39 33 32 36 35 29 31 40 39 30 28 30 20 7 9 9 4 9 21 25 27 27 26 28 30 32 34 33 30 29 33 42 45 45 44 41 39 36 30 25 23 25 28 28 27 26 24 24 22 21 23 23 21 18 18 20 24 26 25 25 24 24 25
38 36 33 37 40 34 30 35 37 30 23 25 24 12 5 7 4 6 19 25 26 29 33 34 33 33 34 37 37 32 32 43 48 44 43 43 40 35 31 27 25 26 28 28 27 26 25 24 24 25 25 25 23 19 18 19 22 24 25 25 25 25 26
36 37 38 41 43 40 33 30 34 37 28 21 26 22 11 7 4 4 11 15 19 30 37 35 32 33 34 35 39 38 35 39 46 45 44 45 41 34 31 27 24 27 28 25 24 25 26 25 25 26 26 24 23 19 18 19 21 24 26 27 27 27 27
40 40 43 44 44 43 40 34 34 38 32 23 24 26 23 15 4 2 6 5 13 24 30 33 32 31 34 34 34 38 39 38 40 42 42 43 38 31 27 23 22 27 27 23 21 23 25 24 24 26 25 23 22 20 19 19 21 24 26 27 28 27 27
39 45 45 42 42 44 44 38 33 37 36 27 18 15 25 27 14 7 5 4 12 19 20 28 31 28 32 34 31 33 39 39 38 38 39 40 38 31 26 23 22 25 25 23 23 23 25 25 24 25 24 23 23 22 20 20 21 23 24 25 27 27 27
29 38 44 41 40 42 44 38 32 35 39 35 22 11 18 28 23 19 13 7 9 11 14 26 30 26 29 31 28 29 34 37 38 37 37 40 38 31 26 25 22 21 23 24 24 24 25 25 24 25 25 23 23 23 22 22 22 23 23 24 25 26 27
29 28 37 42 41 39 42 41 36 33 36 39 29 17 18 24 24 21 12 5 6 9 3 23 29 27 28 25 24 26 27 32 37 36 37 41 39 31 27 26 22 20 23 25 26 26 25 22 22 24 25 24 24 24 24 23 23 23 23 23 23 24 25
21 19 22 34 43 42 40 42 41 36 33 36 32 23 20 20 23 24 10 3 8 4 9 20 25 26 26 18 19 24 23 30 37 34 33 36 35 30 27 26 24 24 26 27 28 28 25 21 22 25 26 24 25 25 25 24 23 23 23 23 23 24 23
7 7 8 23 42 45 39 39 41 39 32 32 34 29 22 16 20 28 20 7 10 7 10 20 23 22 21 15 16 22 23 28 33 32 32 31 29 29 29 28 28 27 27 28 29 28 25 22 23 25 24 22 23 24 24 24 24 23 24 24 24 24 23
6 2 4 19 42 45 36 34 37 40 37 32 35 32 25 19 18 26 27 15 13 14 11 14 16 16 19 18 20 24 25 28 31 32 34 32 29 31 32 31 31 28 26 26 26 26 24 21 23 23 20 19 20 22 23 23 24 24 24 25 25 25 24
14 8 3 10 35 44 40 35 33 39 42 36 34 34 28 22 16 21 26 18 15 17 14 12 11 12 18 21 24 26 27 29 33 33 34 34 33 35 34 33 32 27 25 24 21 21 23 21 21 19 16 15 17 19 20 21 22 24 25 26 27 26 25
18 19 8 2 13 27 37 40 33 35 42 42 37 33 30 26 18 18 22 17 15 16 13 13 14 15 20 24 23 23 25 29 31 27 31 38 39 38 36 35 32 27 24 22 18 19 22 22 20 18 14 14 15 16 17 18 19 22 24 26 28 27 27
15 19 15 8 6 8 22 35 36 32 37 44 42 32 28 27 21 19 22 17 13 15 16 17 19 20 22 23 19 18 23 27 25 20 27 38 39 38 38 36 32 26 22 21 20 19 21 23 23 21 17 16 16 16 16 16 18 20 22 25 27 28 27
13 19 19 10 9 5 8 18 28 26 27 39 44 36 29 28 22 19 23 18 14 17 21 21 23 25 26 26 24 22 22 22 21 24 31 37 37 37 38 36 31 26 21 21 22 23 23 25 26 24 21 19 18 17 17 16 16 18 19 21 24 26 27
9 21 20 9 8 9 6 8 21 23 18 26 41 40 31 28 25 21 23 23 25 24 24 26 30 32 34 37 36 31 27 25 27 32 35 37 37 36 34 32 30 27 24 24 24 25 26 24 24 25 24 22 21 19 18 16 15 16 16 16 18 20 23
8 11 16 12 10 8 10 12 22 22 8 10 32 43 34 26 24 24 23 25 27 25 25 29 33 35 38 40 37 31 28 28 30 31 30 30 30 29 28 27 27 27 27 27 26 27 27 25 24 25 25 24 23 21 19 18 16 15 14 13 12 14 16
10 1 8 11 8 5 8 11 16 13 1 2 17 34 36 27 22 25 25 24 26 28 27 28 33 35 37 37 33 28 27 30 34 33 27 24 21 22 23 22 22 24 25 25 24 24 24 23 24 25 25 25 25 23 22 20 18 16 14 12 11 10 11
13 7 0 4 4 5 9 9 9 6 1 3 8 17 26 22 14 21 30 25 24 29 28 25 29 31 32 32 29 26 25 28 33 31 25 23 20 19 21 20 21 22 22 22 23 22 21 21 21 21 21 23 24 25 24 22 20 18 16 14 12 11 11
11 8 1 6 6 6 8 8 5 4 2 1 6 12 14 11 9 20 34 32 26 30 30 25 26 29 30 30 28 25 23 27 32 29 23 22 22 20 20 20 21 23 21 21 23 23 23 24 24 23 21 20 21 22 23 23 21 20 18 16 15 13 13
10 12 5 9 8 6 4 2 3 1 3 5 1 12 20 18 19 26 32 31 28 29 29 27 27 28 31 32 29 27 24 24 28 26 21 21 21 19 19 18 17 17 16 17 19 20 21 22 23 24 23 23 23 21 21 22 21 20 20 18 17 16 14
10 15 8 6 6 4 2 7 4 6 4 4 7 10 21 25 26 28 28 27 27 26 27 28 28 28 31 32 29 28 25 22 22 21 19 20 19 17 18 19 17 15 15 15 16 17 17 18 19 20 21 23 25 25 25 24 22 21 21 20 19 18 17
10 12 8 2 2 4 6 9 7 10 5 3 11 9 14 23 27 27 29 30 27 26 25 25 28 30 31 30 25 24 24 22 21 20 18 19 19 16 17 20 21 20 19 18 18 17 17 18 18 19 19 19 20 22 24 25 24 24 23 22 21 20 19
10 9 8 5 6 6 11 16 6 7 7 6 11 6 9 15 22 26 30 34 32 29 27 28 30 30 30 28 23 22 24 22 20 19 17 17 18 17 17 20 23 23 21 19 19 20 21 22 23 23 22 20 19 20 21 22 23 23 23 23 23 22 21
8 9 9 7 7 8 14 17 8 7 11 8 9 9 7 8 15 19 26 33 34 32 31 33 33 30 28 29 26 23 24 23 21 21 20 18 18 18 19 22 24 24 24 23 22 21 23 26 27 27 26 24 22 21 20 21 22 22 23 24 25 25 25
12 10 12 9 7 10 14 15 10 5 13 11 15 13 9 9 10 14 20 28 31 31 31 32 32 28 26 26 24 22 23 25 25 24 22 21 20 18 20 22 23 23 25 26 25 23 23 25 27 29 29 27 24 23 23 22 22 23 24 25 25 26 26
11 9 8 6 6 10 14 15 11 7 11 11 12 11 10 12 16 16 17 22 27 30 31 30 29 27 25 23 22 20 20 22 23 22 20 19 18 17 18 21 21 22 24 26 26 24 23 24 25 27 29 28 28 27 25 24 23 23 24 24 24 25 26
6 6 7 6 6 10 14 15 10 16 17 11 3 7 9 13 19 19 16 19 23 25 28 29 29 27 24 22 22 21 19 20 20 19 18 18 18 19 21 20 20 21 23 24 24 24 23 24 25 25 27 28 29 29 27 26 25 24 24 23 23 24 25
7 4 8 7 7 8 12 13 7 11 13 7 2 8 8 11 16 17 16 17 18 19 20 23 24 25 23 22 22 21 20 20 20 20 21 23 24 25 26 24 23 23 24 23 22 22 23 23 24 24 25 26 28 28 29 29 28 27 26 25 25 24 25
6 4 6 3 7 3 4 9 7 2 1 1 2 6 9 9 12 15 16 16 16 15 14 15 17 19 20 21 22 21 21 22 23 25 26 26 26 26 27 26 26 27 27 26 23 22 22 23 24 24 24 24 25 27 29 30 30 30 29 28 28 28 27
8 4 6 2 5 5 5 7 9 8 10 11 10 8 6 8 11 13 15 16 15 14 13 13 13 14 16 18 19 20 21 21 21 22 22 22 21 22 23 24 25 26 27 27 25 23 22 23 24 24 23 22 23 25 27 29 30 31 31 31 31 30 30
11 8 6 6 7 8 9 11 10 9 12 16 18 16 13 10 12 12 13 15 15 13 13 13 12 13 15 17 17 17 17 16 16 17 16 15 15 16 16 17 19 20 21 22 22 22 22 24 25 25 24 24 22 23 24 26 28 30 31 32 31 31 31
15 14 9 8 12 14 13 10 8 7 10 15 18 21 22 18 15 15 15 14 13 12 11 11 12 13 14 16 16 17 16 16 16 15 14 12 11 12 12 13 14 14 15 17 18 20 22 24 25 25 25 25 24 23 23 24 26 28 29 29 30 29 29
16 14 12 11 16 17 14 11 9 9 12 17 19 22 24 24 21 18 16 15 12 10 9 9 10 12 12 13 15 15 14 14 15 15 13 10 8 9 10 11 12 13 13 13 15 17 21 23 24 25 26 26 26 25 23 24 25 26 27 28 28 28 28
19 18 16 16 20 21 18 16 15 14 18 24 26 27 27 28 26 22 20 18 15 11 10 10 11 11 12 12 13 13 12 12 12 13 11 9 10 10 10 11 12 14 14 13 14 16 19 21 22 24 25 26 26 25 24 23 24 24 26 28 28 28 28
26 26 23 22 25 28 28 25 23 24 26 29 31 32 31 31 29 27 25 23 20 17 15 14 13 13 13 13 14 13 12 11 12 12 11 12 14 15 15 15 15 16 16 16 16 16 17 18 19 21 23 24 25 24 22 22 22 23 25 28 28 28 27
31 32 30 29 30 34 35 33 32 32 33 34 36 37 35 34 32 30 30 30 28 26 23 21 19 18 17 18 18 17 16 15 15 15 16 18 19 20 20 20 20 20 20 19 19 19 18 17 17 18 19 21 21 21 19 19 21 23 25 27 28 27 26

ECMWFFLT2_700_spd_036.txt.gz
Wind_Speed
37 32 32 40 39 34 36 40 42 42 38 29 16 7 9 12 6 11 20 14 7 11 15 21 28 27 25 24 32 45 46 42 44 45 43 40 37 39 41 40 35 30 27 23 22 23 26 29 31 31 30 28 28 28 29 30 31 31 30 29 27 26 25
38 35 30 35 40 37 35 43 45 38 30 29 25 12 5 7 5 7 20 23 16 13 15 22 28 29 29 26 27 38 45 43 43 42 40 40 39 39 41 41 37 32 28 26 24 23 24 27 27 25 25 26 27 27 27 30 32 32 32 30 28 27 27
33 37 35 36 41 42 39 40 41 35 26 25 26 16 6 6 4 2 13 22 22 21 23 27 30 32 34 33 30 34 40 43 42 41 39 37 38 40 41 41 40 34 28 26 25 22 24 26 25 22 23 25 26 27 27 28 30 31 31 30 29 28 28
27 36 43 42 44 46 43 37 38 41 34 28 27 21 11 7 4 4 7 9 18 29 32 34 38 40 41 40 36 34 36 37 39 41 40 37 36 39 40 40 41 35 27 25 25 24 25 26 26 26 26 26 25 26 27 27 29 30 31 31 30 29 28
23 33 45 49 48 47 45 39 38 43 37 29 27 24 21 13 3 4 5 3 17 30 28 30 36 38 42 45 41 38 36 33 33 36 40 40 37 37 38 39 41 35 27 24 25 25 26 26 27 29 28 26 24 24 26 26 27 30 32 32 31 29 29
24 29 39 48 49 43 42 41 40 42 38 30 20 15 24 26 11 6 6 4 19 28 21 22 26 25 32 41 42 43 42 37 32 32 36 39 37 36 36 38 40 34 27 26 26 27 28 28 29 30 28 26 25 24 25 26 27 29 30 31 31 29 29
30 29 29 38 46 43 40 40 39 41 41 38 26 14 22 30 23 19 11 5 18 23 16 16 20 21 26 32 38 43 44 40 35 32 31 32 34 34 33 36 38 32 26 26 27 28 29 30 30 29 28 27 26 25 25 26 27 27 28 30 30 28 28
35 35 27 27 38 43 41 39 40 41 43 45 38 28 27 27 25 24 10 6 19 19 11 16 21 23 27 28 34 41 42 39 35 35 33 29 30 32 31 35 35 29 25 27 28 28 28 30 31 31 29 27 26 26 27 27 27 26 26 28 29 28 28
19 26 23 21 29 42 44 42 42 43 44 46 40 33 29 24 27 29 12 8 25 20 9 20 23 25 28 26 31 37 41 39 36 38 38 33 31 32 33 36 35 28 26 28 29 29 29 30 32 31 29 28 27 27 28 27 27 26 26 27 27 27 27
5 9 10 9 15 31 44 46 46 45 45 46 40 32 26 19 25 33 22 20 34 27 17 21 17 20 25 25 30 35 37 37 35 38 41 36 33 34 34 34 32 29 28 29 30 30 29 30 31 31 30 29 28 28 28 28 27 26 26 26 26 26 25
17 17 12 7 3 12 33 46 48 45 43 44 43 35 28 22 23 30 33 34 38 32 22 16 6 18 26 29 32 35 34 33 31 34 40 37 31 32 32 30 30 31 29 29 30 30 30 30 29 28 28 29 28 28 28 27 27 26 26 26 26 25 24
24 27 20 10 6 14 20 40 48 44 39 41 44 39 33 28 22 22 30 34 35 31 21 10 9 20 26 28 30 31 33 32 28 29 36 36 31 30 28 28 31 33 30 29 30 31 30 29 26 24 24 26 27 28 27 26 26 26 26 26 25 24 23
20 27 20 12 11 14 15 33 47 47 42 39 42 43 39 33 26 23 25 26 28 27 20 13 14 22 25 24 24 28 31 31 29 29 33 36 34 30 28 31 33 32 29 27 29 30 30 27 25 23 20 22 24 26 26 26 27 26 26 26 25 24 24
15 23 19 12 10 9 10 31 44 46 45 42 40 41 40 36 32 29 26 24 23 23 21 18 17 22 26 24 22 27 31 31 31 31 32 33 34 32 32 33 32 28 25 24 25 28 29 27 26 23 19 20 22 23 25 27 28 27 27 26 26 25 25
7 14 17 10 6 9 6 26 39 43 46 45 39 37 38 36 33 31 28 25 24 23 22 20 17 18 24 25 24 27 30 29 30 32 32 31 32 34 36 34 31 28 25 22 23 27 28 27 25 22 19 19 20 20 23 26 27 27 27 27 27 27 25
8 8 15 9 4 7 13 12 19 30 38 42 38 32 34 32 26 28 29 24 22 20 16 17 17 18 23 27 27 27 28 27 27 29 31 31 31 33 35 34 33 29 25 24 25 26 26 25 24 22 20 20 19 18 21 23 25 26 28 29 29 28 27
13 2 15 11 3 7 13 19 12 11 22 36 34 21 24 28 22 21 25 22 22 23 23 24 25 23 25 29 29 28 28 27 26 28 31 32 32 32 33 34 32 28 25 25 25 24 23 21 20 20 21 21 19 18 18 20 22 24 27 29 30 29 29
18 10 12 15 2 6 10 20 24 22 17 26 29 20 21 28 23 16 19 25 31 33 30 30 31 30 29 30 30 29 27 27 29 31 31 33 35 36 35 35 33 30 26 24 24 24 22 19 17 17 19 21 20 19 19 19 20 22 24 26 28 28 29
20 16 5 11 1 6 8 16 26 30 27 20 26 27 25 24 22 21 24 31 38 38 37 37 36 36 35 32 30 27 25 26 29 32 33 35 39 41 39 37 35 33 29 26 24 23 21 19 18 19 20 20 20 21 23 22 21 22 22 23 24 24 25
15 15 6 5 5 4 5 13 24 30 28 24 23 25 24 24 28 29 30 35 38 38 40 41 41 41 38 34 31 30 28 27 27 30 32 35 38 40 39 38 37 35 32 29 26 25 24 23 21 22 23 22 22 23 25 25 23 23 22 21 21 21 21
11 17 15 4 8 3 2 8 12 16 20 24 25 24 26 29 33 34 35 37 36 36 38 40 43 44 41 36 35 34 33 33 32 32 33 33 35 36 37 39 38 37 35 32 30 28 26 25 24 24 25 25 25 25 27 27 26 25 24 22 20 19 17
13 19 15 3 4 1 6 7 6 7 14 23 27 28 28 30 33 36 38 37 33 33 35 37 41 44 42 39 39 35 34 35 36 36 36 35 35 34 35 36 37 36 34 31 30 28 26 26 26 27 27 27 27 27 28 29 27 26 26 24 21 19 17
16 16 10 3 3 6 8 7 3 12 15 22 30 29 25 25 28 32 36 38 34 33 33 33 38 45 46 43 39 34 34 35 35 36 37 36 36 35 34 33 32 32 31 29 28 26 24 24 24 24 25 26 25 26 27 29 28 28 28 25 23 21 18
14 12 8 3 6 12 12 9 2 12 17 26 29 19 15 19 24 27 32 37 35 32 31 32 37 43 46 43 37 33 33 33 33 35 35 35 35 35 34 32 29 29 28 27 25 22 21 20 20 21 22 22 22 22 24 25 26 27 28 26 24 22 20
11 11 8 2 7 13 11 7 2 7 16 21 18 13 11 17 22 23 29 34 34 32 31 33 34 37 40 38 35 33 30 29 30 31 31 31 32 31 31 29 27 25 24 23 22 21 20 20 19 20 20 21 21 21 21 22 23 24 24 24 24 23 22
6 7 5 1 6 12 11 9 6 4 15 18 17 14 15 16 19 23 27 30 31 32 31 32 33 34 34 33 34 34 30 28 28 28 28 28 27 27 27 26 25 24 23 23 22 21 21 20 19 20 20 21 22 22 22 21 21 22 23 24 24 23 23
6 10 8 4 6 13 13 9 5 10 18 19 15 11 12 13 18 24 26 27 29 31 32 32 33 32 32 31 31 32 31 31 29 28 28 27 25 25 25 25 25 25 24 24 23 22 22 22 22 22 23 24 25 25 25 23 22 23 24 24 24 24 24
7 12 12 8 9 15 15 11 11 16 17 12 10 10 9 10 14 23 26 26 26 27 28 30 31 30 29 28 28 29 30 30 30 29 29 28 26 26 26 26 26 26 26 26 25 24 24 25 25 26 27 28 29 30 30 28 26 25 24 25 25 24 24
4 7 10 8 8 12 15 12 10 10 10 6 6 9 6 4 11 21 26 25 24 24 24 24 26 28 27 26 25 25 26 26 27 27 26 26 26 26 27 27 27 27 28 28 28 27 27 27 27 28 30 31 32 33 33 33 31 29 28 27 26 25 25
1 4 5 3 5 8 9 7 5 3 2 3 3 6 5 4 7 14 21 22 23 22 21 20 22 24 24 24 23 23 24 24 24 24 23 23 22 22 23 24 24 24 24 25 26 28 29 29 29 30 30 31 33 34 34 34 33 32 31 29 28 27 26
2 1 2 3 6 9 4 3 3 4 4 2 2 4 4 3 4 8 13 17 19 19 19 19 20 20 20 21 21 21 22 22 23 22 21 21 20 20 21 21 21 21 21 22 24 27 29 30 30 30 31 32 33 34 34 34 33 34 34 33 31 30 29
4 5 7 8 6 4 2 7 7 6 5 5 6 6 5 2 1 4 8 10 11 13 15 17 18 17 17 18 18 18 18 18 18 18 18 18 18 19 20 21 22 23 23 23 24 26 28 28 28 29 30 32 33 34 34 34 33 33 34 34 34 33 32
9 9 11 11 9 8 8 9 11 11 10 10 10 10 8 6 4 2 5 7 5 6 10 13 14 14 15 16 17 17 16 15 14 13 13 12 13 14 16 17 18 20 22 24 25 25 26 27 26 27 29 30 31 32 32 32 32 32 32 33 34 35 35
13 10 11 14 13 14 14 12 13 16 18 17 16 16 15 12 10 7 5 4 3 3 7 8 9 11 13 15 16 17 17 17 15 13 12 11 11 12 14 14 15 15 17 19 21 22 22 23 23 23 24 26 28 29 29 30 30 30 30 31 32 33 34
18 14 14 16 18 19 19 17 16 18 21 22 21 22 22 20 15 13 10 8 7 6 6 6 6 8 11 12 13 15 17 17 17 16 14 13 13 14 14 15 15 15 15 16 18 19 18 18 19 19 19 20 22 24 26 27 28 29 29 29 29 30 31
25 22 22 23 24 24 23 21 20 19 20 24 26 26 27 27 23 20 16 13 11 10 9 8 7 7 9 10 12 13 15 16 17 17 16 16 15 15 15 14 14 14 14 15 16 17 16 16 15 15 16 16 18 20 22 24 25 27 28 27 26 26 27
31 30 29 30 30 28 26 24 24 22 21 24 27 28 31 32 31 28 24 20 17 15 13 12 12 11 10 10 11 13 15 16 18 18 18 17 15 15 14 12 10 11 11 13 14 14 14 14 13 13 12 13 15 17 20 22 23 24 25 26 25 25 24

ECMWFFLT2_700_spd_042.txt.gz
Wind_Speed
37 29 27 32 34 33 31 35 40 39 37 30 16 9 11 10 7 12 20 22 16 17 26 29 29 36 41 40 37 34 32 31 28 27 30 34 37 38 36 35 36 34 33 33 32 30 29 28 28 28 30 31 31 30 30 30 30 31 32 32 32 31 30
41 37 28 30 34 34 29 34 41 36 27 28 26 14 7 8 7 7 13 19 20 18 21 26 28 32 37 38 36 34 33 32 30 29 31 33 36 37 35 34 35 35 34 33 32 30 30 29 28 27 28 30 31 31 30 30 30 31 31 31 31 31 31
35 44 36 28 32 35 31 31 35 31 23 25 29 18 7 7 5 5 7 13 20 24 23 22 26 32 38 39 35 32 33 34 33 31 31 33 35 36 36 35 36 37 36 34 33 32 31 30 29 27 27 28 30 31 31 31 30 30 31 31 31 31 31
24 37 41 33 31 35 35 32 28 29 30 28 30 26 15 7 4 4 5 5 13 27 29 23 24 30 35 37 37 33 31 34 35 32 31 33 35 37 36 34 35 38 37 35 34 33 32 30 29 28 27 28 30 31 31 31 30 31 32 32 32 32 32
18 24 36 39 36 33 38 37 28 29 34 28 24 27 25 16 5 2 3 4 9 20 25 24 23 25 29 34 36 35 31 31 33 32 30 32 33 35 34 32 33 36 36 35 35 35 35 33 31 30 28 27 28 30 32 31 31 32 33 33 33 33 32
20 22 30 37 35 31 35 38 33 33 32 25 15 14 24 29 18 8 4 5 11 17 18 19 20 21 24 27 31 34 33 30 31 32 30 28 29 30 31 30 29 31 33 33 35 37 38 36 33 30 29 27 28 30 31 32 31 31 32 33 34 34 33
25 26 27 30 30 28 29 30 33 35 32 29 22 11 17 27 25 23 17 10 19 25 17 14 16 18 20 22 26 30 31 30 30 31 31 28 26 26 26 27 26 26 28 31 34 37 38 37 33 30 29 28 28 29 31 32 32 30 29 30 32 33 33
28 29 26 22 21 21 23 25 30 34 33 33 31 21 17 19 21 24 16 12 29 35 23 18 17 15 17 20 22 26 29 29 27 27 30 30 28 25 24 26 25 23 26 30 34 36 37 37 35 32 30 29 28 29 31 32 31 29 27 27 29 32 33
16 22 21 19 19 18 20 23 24 30 34 34 31 27 21 17 22 26 14 13 33 32 20 21 20 17 18 19 22 26 29 31 30 27 28 29 30 28 24 26 26 26 28 30 31 33 34 35 35 34 31 29 29 30 31 32 31 29 27 26 27 29 31
6 11 9 7 11 12 14 18 21 26 30 30 28 26 22 18 23 29 24 26 38 29 18 20 18 16 15 13 18 24 27 30 31 29 29 30 33 32 28 28 28 28 30 29 29 31 31 31 33 34 33 30 29 30 31 31 29 28 28 28 27 27 28
15 17 11 5 8 11 11 13 20 24 25 24 23 22 26 27 24 27 31 36 40 35 30 30 26 22 20 18 19 20 22 24 23 23 25 28 34 36 33 31 30 29 30 30 30 31 29 28 30 33 34 31 29 30 30 29 28 28 29 29 29 28 28
20 24 21 14 14 16 14 12 14 20 21 21 23 26 30 30 24 25 33 36 37 40 38 35 32 32 32 32 30 25 25 25 23 24 29 29 33 39 38 35 33 29 29 30 29 30 28 26 28 33 34 32 30 30 30 29 28 28 28 28 29 29 29
20 23 22 17 16 17 15 13 13 17 20 20 27 34 33 28 26 29 33 34 36 40 39 35 33 34 33 33 32 29 29 30 30 31 33 30 34 43 43 40 36 30 28 28 27 28 26 25 27 33 35 33 31 30 31 32 31 29 27 27 27 28 28
19 20 17 13 15 18 15 12 13 16 20 22 27 32 33 33 32 31 32 35 38 38 37 37 37 35 34 32 29 26 25 28 30 30 31 32 38 46 47 43 39 33 28 27 27 27 25 23 27 33 34 33 32 31 31 32 31 30 28 27 26 26 26
16 15 13 11 14 17 13 9 13 17 20 21 22 25 29 34 35 34 35 39 41 39 39 40 40 37 34 30 26 24 24 26 27 27 30 34 38 46 49 46 43 37 31 29 29 28 24 21 25 31 33 32 31 30 31 30 30 30 29 28 26 25 25
12 12 13 13 15 16 12 9 12 12 10 11 15 21 27 32 36 39 38 37 40 42 41 41 42 40 36 31 26 24 25 25 22 22 28 32 33 39 47 49 46 41 35 31 29 26 22 21 25 30 33 33 31 29 29 29 29 29 29 29 28 26 25
10 12 11 13 15 13 9 8 7 4 8 8 11 18 24 29 33 35 33 32 38 42 41 40 40 39 37 33 29 27 25 23 18 17 23 28 29 33 43 49 47 41 35 30 27 25 23 24 27 29 31 31 29 27 28 28 28 28 29 29 29 27 26
9 8 7 12 13 9 8 9 7 8 13 13 10 9 15 23 31 34 31 30 34 35 36 37 37 38 37 35 33 30 26 21 16 16 20 25 28 29 34 43 45 40 34 29 26 25 25 26 28 29 30 29 27 26 27 27 27 28 29 29 30 29 28
11 6 6 10 7 8 14 14 10 10 14 16 14 9 14 22 28 30 27 28 30 29 29 31 33 35 35 35 34 30 26 21 16 17 18 21 26 27 28 35 41 40 33 28 28 28 28 28 28 29 29 29 27 27 25 24 25 27 28 28 29 28 29
10 7 3 6 8 15 20 17 12 11 12 15 16 12 13 19 24 25 23 24 27 26 24 26 29 30 31 33 32 29 26 21 16 17 18 21 25 26 27 30 34 35 31 28 29 30 30 29 28 28 28 28 27 25 22 21 22 24 25 25 25 26 28
6 8 5 6 13 16 20 18 14 10 8 12 16 14 10 13 19 20 20 21 23 23 22 22 23 25 27 28 29 28 26 22 18 17 19 22 26 28 29 30 30 31 30 30 31 31 30 29 28 28 28 27 26 23 21 21 22 22 22 22 23 25 26
5 8 5 5 9 9 15 18 12 7 8 12 18 16 12 12 16 16 18 20 20 21 21 20 20 22 24 25 26 26 25 22 20 18 19 22 27 30 30 31 32 32 32 32 31 30 28 28 28 28 29 28 25 23 22 22 23 23 23 22 23 23 23
7 6 4 1 4 5 14 18 9 7 12 17 20 14 12 15 18 17 18 20 20 19 19 18 19 21 22 22 22 24 23 22 21 20 20 23 27 29 30 32 34 34 33 32 30 27 27 28 29 29 29 27 25 23 23 24 24 24 22 21 20 20 21
8 8 6 0 2 4 12 15 7 8 16 19 16 8 7 16 20 20 21 21 20 20 18 16 18 19 17 14 15 19 21 20 21 22 22 24 27 29 30 33 35 34 33 32 29 27 27 29 29 30 29 27 25 24 25 26 26 24 22 20 20 19 20
6 8 7 2 3 3 9 14 9 12 21 16 9 5 6 15 21 24 25 24 22 22 21 18 18 16 14 13 11 17 21 19 20 23 24 26 29 30 32 34 34 33 32 31 28 27 29 30 30 30 29 26 25 26 27 28 27 24 22 20 19 19 19
4 6 6 4 3 4 6 11 11 16 21 14 9 4 5 11 21 26 29 29 26 25 25 23 21 21 21 20 17 20 21 18 20 23 25 27 29 31 32 33 32 31 31 31 29 28 30 32 31 30 28 27 27 28 28 28 26 23 21 19 17 17 17
2 3 4 3 2 3 3 6 9 12 17 15 10 11 10 12 21 27 30 32 31 30 29 27 25 24 25 24 23 22 20 18 20 22 25 27 29 29 30 30 29 28 30 30 29 29 32 32 31 29 28 28 28 27 26 25 23 21 19 18 17 16 15
4 4 4 4 5 5 7 10 10 13 17 14 12 16 12 11 17 24 29 32 33 33 32 29 26 25 28 29 27 24 21 20 21 22 23 25 27 27 27 27 25 26 27 28 29 30 32 32 30 28 27 27 26 25 24 23 21 20 19 18 16 15 14
8 7 4 4 6 7 9 15 17 15 13 11 10 15 14 9 12 19 26 30 32 33 31 28 26 26 29 31 30 28 25 24 24 23 23 23 24 24 25 24 24 24 24 25 27 30 32 32 30 28 27 27 25 24 23 22 20 19 18 16 15 15 15
7 6 3 4 3 3 4 10 14 11 7 7 9 13 15 11 11 15 21 25 28 30 29 28 27 26 27 29 32 33 31 28 27 26 26 25 24 24 25 25 24 24 24 25 26 29 31 31 30 29 28 28 27 25 24 23 21 19 18 17 16 16 16
5 3 7 8 5 3 2 2 7 9 7 3 5 9 13 12 9 11 16 20 23 25 27 28 27 26 25 26 31 36 35 30 27 27 28 28 27 27 27 27 27 26 26 26 26 27 29 29 28 28 29 28 27 25 24 24 23 21 20 18 17 17 17
6 7 8 8 8 8 6 5 3 3 5 4 2 5 8 8 7 7 11 15 18 22 25 27 27 26 25 24 27 33 36 32 27 26 29 30 30 30 30 29 29 29 28 28 28 28 28 29 28 28 28 28 27 26 25 23 22 20 18 17 16 16 16
7 8 7 6 7 8 8 8 8 6 5 6 4 2 1 2 5 5 4 9 15 19 22 26 27 27 27 27 26 28 33 33 28 26 28 30 30 31 32 32 32 32 31 31 31 30 29 30 29 29 29 28 27 26 25 22 21 20 19 18 18 18 18
11 11 11 10 8 9 10 11 11 10 9 8 8 7 4 1 4 7 4 5 12 16 18 22 26 27 28 29 28 25 29 32 29 27 28 30 30 30 31 31 31 32 33 32 31 31 30 30 30 30 29 28 27 25 24 23 22 22 22 21 22 22 22
17 17 16 16 14 13 13 13 13 13 13 11 10 10 7 3 3 8 8 5 9 14 15 19 23 26 27 28 28 26 26 30 29 28 28 30 31 30 29 29 29 29 30 30 30 30 30 30 30 30 29 29 27 26 25 25 25 25 24 24 24 25 26
20 19 18 18 17 16 15 14 14 15 15 14 12 12 11 6 4 9 12 8 8 12 14 16 20 24 25 27 27 27 24 25 27 28 28 29 30 30 28 28 28 27 28 29 28 28 28 28 29 29 29 28 28 27 27 27 26 25 24 23 23 24 25
21 21 19 18 18 18 17 16 16 16 17 16 16 16 14 11 7 9 13 12 9 12 14 16 18 21 23 24 25 26 24 22 24 26 28 28 29 29 28 27 27 27 27 28 28 28 28 28 28 28 28 28 27 27 26 25 24 23 23 23 24 24 25

ECMWFFLT2_700_spd_045.txt.gz
Wind_Speed
32 30 28 28 26 23 23 29 33 30 26 25 19 12 10 11 11 9 15 22 22 20 26 29 26 25 32 42 45 44 42 40 40 39 35 31 27 24 24 29 33 31 29 29 30 32 31 30 29 29 29 29 29 29 28 29 30 31 32 32 32 31 30
32 33 29 30 31 25 20 25 32 26 20 23 22 14 9 10 10 7 11 19 22 19 19 23 27 27 29 35 39 41 43 41 40 39 37 32 27 23 22 26 32 33 31 31 32 33 31 30 29 29 29 29 29 29 29 29 30 30 31 32 32 32 31
29 33 32 30 32 33 26 21 24 24 20 22 24 17 10 9 9 6 9 14 19 21 17 12 17 25 28 32 35 37 41 42 40 38 36 33 27 23 21 23 31 35 34 33 33 33 33 31 31 30 29 28 29 29 29 29 29 30 30 31 32 32 32
25 29 34 32 28 31 32 24 21 25 24 22 26 24 15 9 8 7 8 10 15 23 24 17 16 20 24 29 33 36 38 40 40 37 35 31 27 24 22 22 30 36 35 34 34 34 34 33 32 31 29 29 29 29 29 29 29 30 31 32 33 33 33
22 23 31 35 29 26 30 28 24 26 26 22 22 25 25 18 9 6 6 8 13 18 20 20 20 20 22 26 29 33 37 38 38 36 34 31 27 25 22 20 26 33 35 34 35 34 34 34 34 33 31 31 30 29 30 30 30 30 31 32 33 33 33
20 20 26 36 37 30 25 24 26 27 26 23 17 17 26 27 18 11 7 7 12 14 10 11 15 17 18 21 25 30 33 36 37 35 32 29 26 25 23 20 21 29 34 34 35 36 36 37 35 33 32 32 30 30 30 30 30 31 32 32 32 33 33
25 25 25 30 36 34 26 24 28 28 26 26 21 14 18 26 25 19 14 11 16 19 15 10 9 12 15 16 20 26 31 33 34 33 30 27 25 24 23 19 19 25 31 33 35 36 36 36 35 33 33 32 31 30 29 30 31 32 32 32 32 32 33
24 28 25 24 29 31 28 27 29 32 28 25 24 17 14 19 23 20 15 13 16 24 27 20 11 10 14 17 18 19 24 29 31 32 32 28 25 24 23 20 18 22 29 32 34 37 36 36 35 35 34 32 31 31 30 30 31 31 32 32 32 32 33
14 21 21 20 23 26 27 27 29 33 33 29 28 22 15 16 21 22 16 12 14 21 26 25 17 13 13 17 21 19 18 21 24 28 30 28 26 24 24 22 19 21 27 31 34 36 37 36 35 35 35 33 32 31 31 30 30 30 31 32 32 32 33
8 10 9 10 16 21 23 24 26 30 31 32 28 21 16 15 18 24 22 14 15 20 20 17 15 15 13 14 19 22 20 19 20 23 25 26 26 24 24 24 22 21 24 29 32 34 35 35 34 33 34 34 32 31 31 31 30 29 31 32 32 32 32
14 11 5 4 10 18 19 18 22 24 26 28 25 19 17 14 14 22 25 18 15 17 14 10 10 13 15 14 15 19 21 22 23 25 27 28 28 26 24 25 25 24 24 27 30 33 34 33 31 30 32 34 34 32 31 30 30 29 30 31 32 31 31
23 22 18 12 10 15 17 17 19 21 21 23 23 23 21 14 13 16 18 22 21 16 13 14 13 15 17 17 16 17 19 21 22 25 27 29 30 30 28 27 27 27 26 26 28 32 35 34 30 28 28 31 34 33 31 30 30 29 29 31 32 30 30
25 25 25 22 16 15 16 17 18 19 19 19 21 26 26 24 21 12 9 20 25 21 20 22 20 21 22 21 21 21 20 20 20 21 23 26 29 29 29 29 28 27 28 28 27 30 36 35 32 28 27 29 32 34 33 31 30 29 29 31 32 30 29
25 26 26 24 19 17 17 17 17 18 19 18 18 21 23 26 25 18 18 24 23 21 25 26 24 25 25 23 23 23 23 22 21 19 20 23 27 28 28 29 27 27 30 32 29 29 33 34 32 29 26 27 30 32 32 31 29 29 30 30 31 31 30
23 27 27 23 18 18 19 17 15 16 17 15 15 17 18 22 24 25 31 33 28 26 27 25 25 27 27 26 27 26 25 25 24 22 19 20 25 28 29 29 29 31 34 36 32 29 32 33 32 29 26 27 29 31 32 32 30 30 31 30 31 31 30
19 21 21 18 15 16 19 18 14 14 16 12 11 14 16 19 23 26 31 33 32 33 32 28 28 29 28 30 31 30 29 28 27 25 21 20 23 27 30 32 33 35 38 38 35 31 32 33 32 29 26 28 30 31 32 33 32 32 32 32 31 30 29
14 16 13 12 11 10 15 21 19 17 18 14 11 13 15 18 21 24 30 35 34 33 34 34 32 31 31 31 32 32 32 31 29 27 24 21 22 26 31 35 37 39 41 40 36 33 30 31 31 28 25 27 29 29 31 33 33 33 34 33 32 31 30
11 13 11 10 9 6 10 20 24 20 19 18 12 9 10 14 20 25 33 39 35 31 33 35 35 35 36 35 35 35 34 32 30 26 23 22 22 26 33 40 41 42 42 41 39 34 29 28 28 25 23 27 30 30 32 32 33 34 35 35 34 32 32
12 12 9 7 8 10 13 19 22 20 18 18 13 7 7 13 20 27 35 38 34 31 33 35 34 35 36 37 37 36 34 32 30 25 24 24 23 24 33 41 42 42 43 43 40 35 29 28 27 23 23 29 32 32 33 32 32 33 33 34 34 33 33
11 8 7 7 6 13 18 18 20 21 17 16 13 7 7 13 20 26 31 30 30 33 35 35 33 32 32 32 34 34 32 31 29 27 26 25 22 22 30 35 37 39 43 44 41 35 31 29 26 23 26 31 33 33 33 32 31 31 30 31 32 32 33
11 8 8 10 7 10 16 17 19 22 21 18 16 10 8 12 19 23 25 23 24 30 34 33 32 30 28 28 31 34 32 30 28 27 27 23 18 20 27 31 33 38 42 44 42 37 34 31 26 24 29 33 33 33 33 32 30 29 28 29 31 32 33
11 10 9 9 6 5 12 16 19 24 23 20 18 13 9 11 16 18 18 18 20 26 29 29 28 26 25 26 30 33 33 30 28 27 25 20 14 20 27 29 34 39 43 45 45 42 39 34 27 26 30 32 32 32 32 30 29 29 30 30 32 33 33
10 10 7 6 4 4 12 18 20 22 22 20 18 12 7 10 15 15 15 16 18 23 25 25 24 23 24 26 29 33 33 31 29 26 23 18 13 22 27 28 33 40 44 47 47 45 42 35 28 28 31 31 31 31 30 30 29 30 31 31 31 32 32
13 11 9 7 6 5 13 19 18 18 21 22 18 9 6 12 15 14 15 17 18 20 22 23 23 21 21 22 26 31 33 32 30 26 21 15 14 23 29 29 32 38 43 45 45 44 41 33 29 30 32 32 31 31 30 30 30 30 30 30 30 31 32
15 12 10 8 7 7 13 17 15 16 22 22 17 12 11 14 15 15 17 19 19 20 20 20 21 19 17 17 20 26 29 30 29 23 16 13 14 21 27 29 30 35 38 39 40 40 36 31 30 33 33 32 32 32 31 31 30 29 30 30 30 31 31
15 11 11 8 6 6 11 15 17 21 24 20 18 19 19 16 15 17 19 21 21 21 21 20 19 18 16 15 17 22 24 26 27 20 13 12 14 18 23 26 28 31 34 35 36 34 31 30 33 34 33 32 33 32 32 31 30 29 30 30 30 29 29
11 8 7 6 4 4 7 13 17 22 24 22 22 24 20 16 16 18 21 23 23 23 23 22 22 21 19 18 18 19 22 25 26 19 12 12 15 17 20 24 26 28 30 32 33 31 30 32 35 34 33 33 33 34 33 31 30 30 30 30 28 27 26
3 2 2 2 4 3 4 10 13 18 22 23 24 23 20 18 17 18 23 26 26 26 26 25 24 24 24 22 20 19 21 24 23 16 12 13 15 17 20 23 25 27 28 29 30 31 32 35 35 34 33 33 34 34 32 30 30 30 30 28 25 23 22
6 5 3 1 5 5 6 10 12 17 21 23 22 22 20 19 15 15 21 27 28 28 29 27 27 27 26 24 22 21 20 20 17 13 13 14 15 17 20 22 24 25 26 27 29 32 35 36 35 34 34 34 35 34 32 31 30 29 27 24 22 20 19
8 5 0 3 5 4 3 7 10 13 17 19 21 21 19 16 13 11 16 23 28 30 31 29 28 28 28 26 24 22 20 17 15 14 14 15 16 17 20 22 23 25 26 27 30 34 36 37 36 35 36 35 34 33 32 31 29 27 24 22 20 19 18
4 2 3 4 3 2 0 3 6 8 10 14 17 18 18 17 14 9 10 18 24 28 31 31 29 29 30 29 26 23 21 19 17 16 16 16 16 17 19 21 23 24 26 28 30 34 36 38 37 37 37 36 34 32 31 30 28 26 24 21 19 18 18
11 8 5 5 4 2 2 2 3 4 6 9 12 14 16 17 13 7 5 12 19 24 29 31 30 30 31 30 27 25 23 21 20 19 18 18 17 18 20 22 23 24 25 27 29 32 35 37 38 38 37 36 34 32 31 29 28 27 24 20 18 17 19
16 12 8 8 7 4 3 3 3 4 5 8 11 14 15 15 13 8 5 8 15 21 25 29 30 31 31 30 29 27 25 23 23 22 21 21 20 20 21 23 25 25 25 26 27 30 32 36 38 37 36 35 35 34 32 30 28 27 24 21 21 20 19
20 17 15 15 12 8 5 5 6 5 5 8 13 16 16 15 13 11 9 8 13 17 22 27 30 31 31 31 30 29 27 26 24 24 25 25 24 23 23 23 25 26 27 27 28 29 31 35 37 37 36 36 35 33 31 29 28 26 23 22 24 23 20
19 18 18 17 16 12 8 5 7 8 7 8 13 17 18 15 11 12 13 11 12 15 19 24 29 30 30 30 31 31 30 29 27 26 26 27 27 25 24 23 24 25 26 27 29 30 31 34 36 37 36 36 36 34 30 27 26 25 22 20 21 22 20
20 20 18 16 15 13 9 5 7 9 9 8 12 17 17 15 13 13 16 15 12 14 17 21 27 30 29 30 32 32 31 32 31 29 28 29 29 29 28 27 26 26 26 27 28 30 31 33 34 36 35 34 33 34 33 30 27 26 23 20 21 21 19
23 22 19 15 14 13 10 7 7 10 10 9 11 17 18 15 13 13 15 16 12 12 14 17 23 28 30 30 31 31 31 33 34 32 31 31 32 32 32 32 31 30 28 29 29 30 31 32 32 33 33 31 31 32 32 30 28 26 23 22 22 22 20

ECMWFFLT2_700_spd_048.txt.gz
Wind_Speed
23 22 24 26 27 23 20 26 30 28 25 22 19 15 15 14 11 11 18 21 18 14 14 14 16 18 22 27 30 31 32 32 30 27 28 30 31 31 30 28 25 24 25 27 28 29 30 30 29 28 26 26 27 27 28 29 30 30 31 31 31 31 31
20 23 24 26 28 26 21 24 27 25 23 23 21 15 12 13 10 10 17 20 20 17 14 15 21 25 24 24 26 27 31 35 35 32 31 32 33 32 30 28 25 24 25 27 28 29 30 31 29 29 28 27 26 27 27 28 29 29 29 30 31 32 31
18 20 25 26 29 31 27 22 21 25 24 23 23 17 11 11 10 9 15 19 20 20 15 9 14 23 26 26 26 26 27 31 35 36 35 35 35 33 31 28 25 24 25 27 29 29 30 30 30 30 30 29 28 27 26 27 28 29 29 30 31 32 32
16 16 23 28 29 32 32 26 22 27 27 23 24 22 16 12 9 8 12 14 16 20 21 14 11 15 19 21 23 26 27 29 31 34 35 37 37 35 32 29 26 24 23 26 29 30 31 31 31 32 32 31 30 28 27 27 28 29 29 29 30 31 32
16 20 26 28 27 29 34 34 29 26 27 26 25 25 25 20 11 7 7 9 11 15 18 19 14 13 15 16 19 22 24 26 27 30 34 36 38 36 33 29 26 24 22 24 29 31 31 32 32 33 33 32 31 30 29 28 28 29 29 29 29 30 31
17 21 23 25 27 27 28 34 37 32 28 27 22 20 27 27 19 13 9 6 7 7 9 15 15 14 14 15 17 19 21 22 24 27 31 35 37 37 33 30 27 24 22 24 29 32 33 33 34 35 34 33 32 32 31 30 30 29 29 29 29 29 30
20 22 22 22 25 25 22 24 33 36 34 32 26 20 24 28 24 20 15 11 9 5 5 8 9 10 11 12 14 16 18 19 21 25 27 31 37 36 32 30 27 24 23 24 29 34 35 34 35 35 34 34 34 33 33 32 31 30 30 29 29 28 29
21 25 25 22 22 24 26 26 27 32 36 36 30 21 19 23 25 23 16 11 12 11 8 7 7 7 8 9 11 12 14 16 18 22 25 27 34 36 32 30 26 23 24 25 29 35 36 35 35 35 35 34 34 34 34 33 32 31 31 31 30 29 28
15 19 22 25 26 23 28 32 29 28 31 29 23 17 14 16 22 25 17 11 13 13 11 12 11 11 10 11 11 11 12 13 13 17 22 24 28 32 32 29 25 24 26 26 29 35 37 36 36 36 35 34 34 34 34 33 32 32 32 32 32 30 29
11 10 9 14 20 18 23 33 32 28 29 28 23 20 19 18 20 24 21 16 14 10 8 10 10 11 11 9 9 9 9 13 16 19 22 23 23 26 29 29 26 26 27 26 28 35 37 37 37 37 35 34 34 34 34 34 33 33 33 33 33 32 31
20 15 7 4 6 9 14 23 24 22 27 33 29 24 25 24 20 24 23 18 15 12 8 7 7 9 11 10 9 9 6 9 17 23 24 23 22 24 26 28 28 29 28 25 26 33 37 37 38 38 36 34 34 34 34 34 34 33 33 33 33 32 31
28 28 22 15 14 15 14 15 14 13 18 29 33 30 30 26 19 22 24 19 19 18 10 6 10 14 16 15 13 11 7 5 9 15 19 20 20 22 25 27 28 28 28 25 23 28 35 38 38 37 36 35 34 34 34 34 35 34 33 33 33 32 32
27 29 28 22 19 21 20 18 17 13 12 18 26 30 33 31 23 22 21 16 19 22 15 11 16 19 17 15 12 12 12 9 6 7 10 12 13 15 19 23 26 26 26 26 24 24 30 37 39 38 37 37 35 35 35 35 35 35 34 34 34 33 32
24 27 29 26 23 24 23 22 20 18 15 16 19 23 28 32 31 27 20 13 13 18 18 18 19 18 17 16 14 15 15 12 10 8 8 9 10 10 12 16 21 24 24 25 26 24 25 30 36 39 39 38 36 35 36 36 35 35 35 35 34 33 32
21 23 26 26 25 24 24 25 22 20 19 18 19 21 24 30 32 29 27 23 18 17 19 21 19 17 19 20 20 19 17 15 13 11 11 12 11 10 10 12 17 22 23 24 26 26 25 26 31 37 39 38 36 36 36 36 36 35 35 34 34 33 32
20 19 21 24 25 24 26 27 24 22 20 18 19 21 24 28 28 25 27 29 28 28 29 27 23 21 21 23 24 24 22 19 17 14 13 14 13 12 12 13 15 20 24 26 27 28 27 26 27 33 38 38 36 36 36 35 36 36 35 35 34 34 33
18 16 17 20 21 20 24 28 26 24 21 18 21 23 24 27 27 24 25 28 33 39 40 36 32 30 27 24 25 28 27 23 20 18 16 15 15 14 14 15 17 19 22 26 29 29 29 29 27 30 36 39 36 34 35 35 35 36 36 35 35 35 33
16 15 15 16 16 16 19 21 22 23 23 21 21 21 20 23 26 27 28 31 36 42 43 39 37 37 34 28 28 31 31 27 23 21 19 18 17 16 16 18 20 21 23 26 31 32 31 31 29 28 32 38 36 34 35 35 35 36 36 36 36 36 33
15 16 15 12 13 15 15 14 17 21 23 22 21 18 17 19 23 27 30 34 39 43 43 41 38 38 35 30 30 34 34 31 27 24 21 20 18 17 16 18 21 24 27 29 32 34 33 33 33 30 30 35 36 35 35 36 36 37 37 37 37 36 33
13 15 14 10 9 9 11 15 19 20 19 21 19 16 17 18 19 23 29 33 38 43 44 42 39 36 32 27 29 35 36 33 30 27 24 22 20 17 16 17 20 24 29 32 34 35 35 34 34 32 31 34 35 34 36 37 37 38 38 38 38 36 33
14 15 16 15 14 11 10 16 21 21 19 19 15 11 17 21 19 20 25 30 36 41 43 42 39 36 33 28 28 35 38 35 32 29 27 25 21 19 18 18 19 24 30 34 35 37 37 36 35 33 33 33 32 33 37 38 38 39 40 40 38 36 33
14 15 14 13 14 12 12 15 20 23 25 24 17 10 15 22 21 20 23 28 34 37 38 38 37 35 32 29 29 34 38 37 32 30 28 26 23 21 20 18 19 27 33 36 38 39 39 39 37 36 35 33 30 32 37 39 39 40 41 40 38 35 33
14 14 13 11 10 9 10 14 19 25 27 26 20 12 14 20 21 21 23 26 29 30 31 32 32 31 29 28 30 34 37 35 32 30 28 27 26 25 22 19 21 29 36 39 41 42 42 42 40 38 37 34 31 32 37 39 40 41 41 39 37 35 34
17 16 15 14 13 10 11 13 17 22 25 25 17 10 14 22 24 22 24 25 25 25 27 28 28 29 30 30 31 34 35 34 33 31 30 29 27 26 25 23 22 27 33 40 43 44 44 44 42 40 39 36 32 32 36 39 40 41 40 38 36 35 35
18 18 17 16 16 16 16 15 16 18 20 19 11 7 14 24 26 25 25 24 21 22 26 27 27 28 30 32 32 33 34 34 33 32 31 30 27 25 24 22 21 24 28 35 41 43 46 46 44 42 41 38 33 32 35 38 39 39 38 37 36 36 35
17 18 18 17 16 18 18 17 16 16 14 9 7 11 18 25 26 25 24 22 20 21 24 26 27 28 29 30 31 31 32 32 32 32 32 29 25 23 20 18 19 22 25 30 36 42 46 47 45 44 43 37 32 31 33 36 37 38 38 37 36 36 35
16 15 15 13 11 14 17 16 15 15 13 7 6 13 19 22 24 24 22 21 20 21 23 24 25 27 28 29 28 28 28 28 29 30 30 27 23 19 17 16 20 23 26 30 34 38 41 44 45 44 40 34 30 30 32 35 38 39 38 37 35 35 35
13 12 12 12 12 13 14 13 9 11 14 11 10 15 18 20 22 22 21 21 21 22 24 24 25 26 26 26 26 26 25 25 27 27 27 25 20 16 15 17 20 24 27 32 35 36 37 39 41 38 34 30 30 31 34 38 41 40 38 36 35 34 34
8 7 7 9 11 10 8 6 5 8 13 14 14 16 19 20 20 21 22 23 23 24 25 26 26 27 26 25 25 24 23 24 25 23 22 20 15 14 15 18 21 25 27 30 33 34 34 36 35 32 31 31 32 35 39 41 41 40 38 35 34 34 34
5 5 5 7 7 7 6 6 7 8 12 15 15 17 19 19 19 20 21 23 25 26 27 28 29 28 28 27 25 24 23 24 23 21 19 16 12 12 16 19 23 26 28 30 31 32 33 34 34 32 32 33 37 40 42 42 41 39 37 35 34 35 34
1 4 7 8 8 7 7 8 8 8 10 11 12 16 19 18 18 19 20 22 24 26 28 30 31 30 29 28 27 25 23 22 21 20 17 13 11 13 17 20 24 27 29 31 32 32 33 34 35 35 35 38 42 43 42 41 40 38 36 36 35 34 32
6 7 9 10 9 7 7 9 10 10 10 11 11 15 18 18 18 18 20 21 22 23 26 30 31 31 30 29 28 26 24 22 20 19 16 12 11 14 17 21 25 27 29 31 33 34 36 37 37 38 40 43 44 43 42 41 40 38 37 35 33 30 28
10 10 11 10 7 5 7 9 12 12 11 11 12 15 17 18 18 18 19 20 21 22 24 26 29 30 31 31 29 27 24 22 20 18 17 14 13 14 15 18 25 28 29 31 35 37 38 40 40 42 45 46 45 44 43 41 39 37 36 33 30 29 27
15 15 15 13 8 6 7 10 13 14 12 11 12 15 18 19 19 19 17 18 20 21 22 23 25 27 29 31 31 28 26 24 21 19 18 16 16 18 17 16 22 28 30 31 36 38 39 42 44 46 47 47 46 45 43 41 39 36 34 32 31 30 28
16 16 16 14 12 10 9 10 12 14 13 12 12 15 19 20 20 20 18 17 19 22 22 22 22 24 27 30 32 31 29 26 24 23 21 19 19 22 22 17 18 25 29 32 35 38 40 43 46 48 47 46 46 45 43 41 39 36 33 33 31 29 28
15 16 16 14 12 12 10 9 11 14 14 12 12 15 19 21 21 21 20 18 18 21 22 20 19 21 23 25 29 32 31 29 27 26 26 24 22 24 26 23 19 21 26 30 33 37 41 43 45 47 48 47 46 45 43 40 38 37 35 34 32 30 29
15 17 17 14 11 12 12 10 11 14 14 12 12 14 18 21 22 22 22 20 18 20 23 20 16 17 18 19 24 30 33 32 31 29 28 27 25 25 28 28 24 22 24 27 31 35 40 43 44 45 46 47 46 44 42 41 39 38 37 35 33 32 30